GFSGL_2pvu_pres_000.txt.gz
Presure
195 204 205 203 214 227 235 244 251 268 260 249 267 292 326 315 328 323 333 361 355 304 270 362 351 346 338 337 330 330 329 337 341 336 338 306 292 294 302 295 282 242 219
203 203 213 224 232 248 243 238 252 265 349 348 342 339 332 333 334 324 312 310 296 268 352 348 341 335 335 331 332 326 324 329 338 342 329 329 308 295 293 304 293 256 241
218 223 247 248 238 249 302 346 332 326 328 339 331 327 318 309 302 303 280 294 278 347 340 336 334 334 332 332 331 331 327 321 325 330 334 337 317 309 292 296 303 294 285
243 240 238 238 358 350 324 304 297 294 284 257 299 294 290 283 272 316 361 351 346 340 341 346 352 357 359 355 355 354 352 348 340 332 328 329 338 313 307 297 294 301 301
253 282 291 322 299 302 294 301 294 289 291 292 284 267 253 376 371 360 350 348 349 353 355 344 338 343 348 352 359 355 357 355 354 357 355 347 335 332 330 306 301 295 301
270 306 297 294 284 299 274 262 265 268 267 265 252 390 377 371 361 353 353 356 351 331 334 351 326 316 464 470 473 477 481 482 496 511 378 369 356 356 342 346 314 300 300
308 276 277 266 278 271 269 303 298 286 271 384 385 373 365 353 354 356 356 339 328 343 310 375 443 425 414 397 391 391 392 396 406 424 443 462 399 376 356 354 351 339 316
326 263 265 269 284 280 248 282 293 276 378 386 373 362 353 353 356 349 328 348 311 303 419 392 373 363 359 357 357 358 356 354 361 379 388 407 420 442 372 382 353 354 353
261 253 258 261 258 283 294 394 383 394 386 370 358 357 352 349 347 325 355 300 414 394 363 354 345 338 340 340 344 343 345 349 353 358 358 377 382 398 419 384 372 378 346
251 250 283 273 440 393 414 404 392 382 367 354 353 344 348 348 328 349 298 446 383 351 337 338 348 350 348 359 376 370 338 335 340 343 349 366 358 368 383 391 404 343 348
252 276 430 401 425 410 394 384 377 365 356 347 337 346 351 347 325 305 449 399 347 335 340 325 312 309 294 308 330 381 388 389 355 345 337 343 348 352 344 367 377 212 403
348 412 398 419 406 392 374 372 364 353 347 333 340 346 356 311 315 293 417 353 332 323 313 294 293 300 290 327 340 325 407 387 388 369 347 343 351 341 346 354 354 357 366
406 424 415 400 383 366 367 358 351 347 337 341 347 352 301 344 291 425 394 337 324 315 301 288 296 286 310 345 420 408 391 381 380 381 375 378 375 377 360 352 348 347 349
417 405 390 374 367 363 353 343 338 342 351 349 347 301 330 292 321 405 357 322 321 294 293 289 280 296 290 314 411 402 405 403 391 377 372 366 366 364 365 365 366 375 372
394 380 369 369 354 344 341 345 353 351 338 319 306 345 303 301 416 380 344 312 312 302 280 297 290 288 293 298 317 331 328 366 372 415 414 409 400 389 386 380 380 369 367
374 365 360 346 341 347 351 341 324 314 329 333 330 300 303 437 393 353 332 318 304 287 301 278 282 284 300 290 294 296 304 312 326 336 367 426 428 441 422 415 418 418 408
359 348 341 345 354 338 319 315 333 326 322 462 472 453 454 395 372 340 320 314 299 282 290 288 280 281 281 281 298 301 300 297 307 310 321 343 452 470 452 446 436 436 438
343 339 352 341 321 317 327 323 451 447 445 452 443 441 410 371 343 329 318 298 291 298 275 290 273 289 262 288 289 287 287 289 285 295 301 302 333 333 452 440 421 409 402
346 352 330 318 330 321 369 443 439 437 441 431 428 412 382 356 333 322 317 298 284 298 272 289 278 290 287 277 282 280 285 280 291 292 290 298 305 328 359 459 445 429 407
339 322 312 331 322 440 435 432 433 433 417 407 422 388 357 345 327 306 313 292 287 294 278 287 283 279 278 274 289 286 280 280 283 273 280 290 297 300 322 335 447 458 445
320 307 334 325 444 438 422 425 425 408 394 427 382 375 344 334 322 303 302 287 296 282 286 287 279 265 257 280 280 281 283 279 287 290 280 278 278 297 301 311 320 350 453
316 332 322 445 435 423 423 418 408 385 376 393 376 362 337 330 320 303 293 282 294 287 270 279 279 270 265 260 284 276 277 278 279 281 276 290 269 290 287 300 301 316 329
328 320 412 413 428 415 409 398 391 369 365 371 376 363 335 329 318 303 293 290 285 281 272 282 275 280 279 277 278 281 277 267 272 276 281 278 280 291 268 290 290 301 307
320 341 419 431 423 410 402 385 367 363 354 364 370 357 330 327 313 305 296 289 280 287 278 276 280 272 275 270 267 268 266 272 279 277 286 270 277 290 287 282 284 293 292
311 370 409 413 415 400 392 366 355 358 347 360 365 354 331 330 309 307 301 292 283 278 281 277 277 278 276 276 277 273 281 281 271 280 278 281 285 283 286 286 291 266 288
365 361 408 395 409 389 379 358 350 352 344 403 351 349 336 323 319 309 304 297 292 285 280 281 276 273 275 277 277 277 271 273 274 282 280 286 286 286 280 284 297 293 284

GFSGL_2pvu_pres_003.txt.gz
Presure
203 206 214 226 218 232 256 269 268 290 311 293 288 285 286 281 272 282 281 286 287 291 286 283 282 286 284 278 316 279 279 365 374 363 349 334 340 345 354 376 342 312 289
213 219 244 245 254 229 269 268 294 309 291 274 268 266 270 266 243 261 252 264 278 276 257 254 264 362 363 358 315 353 355 351 354 353 355 330 327 334 337 347 345 331 328
220 214 248 246 250 277 264 288 302 298 266 260 262 265 266 271 296 297 294 284 264 277 372 347 285 356 347 346 347 346 345 347 345 342 342 337 322 324 333 338 357 327 321
244 238 224 247 285 289 292 300 304 275 257 255 260 264 255 276 280 380 283 282 377 370 362 352 348 349 349 353 357 358 358 360 359 357 343 335 336 319 320 328 340 336 312
235 251 253 294 291 302 312 278 264 255 253 248 312 341 410 403 361 361 353 368 362 350 347 350 350 358 358 348 338 336 343 347 346 348 359 361 337 334 325 321 335 334 323
258 252 302 298 315 309 282 286 304 383 432 402 423 409 395 390 383 371 366 355 351 349 350 351 350 335 331 351 321 306 310 480 485 328 387 382 355 358 334 333 335 340 335
253 299 298 312 302 285 303 373 406 428 401 415 400 391 379 374 365 358 353 352 343 347 347 333 323 341 302 364 407 390 383 381 389 403 429 451 471 409 364 351 338 345 341
309 312 318 310 297 322 395 407 429 410 412 395 390 379 370 360 352 350 339 335 349 339 329 351 304 354 376 364 354 349 349 352 356 365 368 382 403 429 450 425 367 350 351
320 316 302 310 392 392 409 421 414 405 395 385 371 369 356 346 347 335 335 348 341 320 340 293 385 357 349 358 360 357 357 358 359 354 358 364 361 379 408 424 445 366 371
308 295 349 396 405 431 420 411 403 391 371 364 359 351 346 347 335 333 343 351 317 330 290 371 357 337 321 324 319 315 323 330 333 387 376 345 349 355 369 381 405 426 458
326 387 394 416 427 415 403 393 372 363 360 352 343 340 339 338 337 345 351 310 327 290 323 353 323 321 315 305 325 316 325 321 385 337 393 385 350 337 347 359 378 397 412
395 386 423 415 399 384 373 362 358 349 342 335 333 334 341 353 354 349 306 330 291 303 349 328 317 307 296 316 308 383 414 408 404 409 397 399 402 350 338 345 355 369 383
385 420 405 388 378 367 358 347 337 335 338 348 351 348 344 343 336 304 309 299 298 348 334 319 303 292 299 311 435 414 402 395 392 387 382 383 381 380 353 343 343 342 354
385 397 383 371 359 349 343 340 352 357 344 329 319 309 307 309 305 310 355 290 374 332 321 300 294 297 289 281 305 316 323 328 333 342 398 403 383 384 381 370 352 347 351
389 377 364 351 344 347 354 348 335 323 321 329 330 333 389 324 319 321 290 394 338 325 310 293 286 291 289 300 279 279 293 294 306 316 332 334 421 417 397 382 382 383 374
369 357 344 341 350 343 334 323 341 332 395 457 458 452 448 458 456 377 385 364 332 319 290 295 278 283 278 277 277 297 286 291 296 285 305 328 339 429 432 456 419 389 378
352 342 340 344 338 329 346 333 327 438 437 443 442 455 446 436 401 384 368 341 318 316 291 287 291 284 271 288 295 288 289 275 287 288 306 306 323 344 464 474 471 467 430
341 338 343 334 337 346 330 445 441 432 432 436 437 423 432 428 378 365 345 327 312 295 293 280 285 286 274 284 294 287 283 283 288 291 291 294 302 318 343 449 453 453 437
336 346 332 341 341 330 443 436 430 427 430 413 409 425 435 376 365 344 333 314 312 291 293 282 266 286 284 287 265 287 284 285 280 289 277 291 292 302 312 342 353 442 440
350 332 336 337 324 414 437 426 423 420 394 392 421 422 383 365 352 331 323 309 304 298 288 295 270 280 281 268 275 281 288 286 287 290 292 287 281 296 303 310 325 336 457
332 325 337 320 387 445 430 418 402 388 378 395 427 394 363 350 340 322 318 308 302 290 286 292 279 282 279 270 266 260 279 275 278 280 279 293 288 296 306 301 301 302 329
320 333 322 307 422 432 420 405 393 374 366 402 393 379 348 340 329 317 311 306 300 287 282 290 277 281 275 275 262 267 283 281 273 277 282 288 288 291 298 303 313 297 305
326 325 309 351 411 422 406 393 372 368 357 365 375 369 339 333 321 315 306 301 301 282 280 293 272 279 270 268 276 283 275 280 276 274 283 280 279 286 286 297 296 294 292
325 315 325 358 376 411 398 383 363 353 356 349 363 366 343 329 323 313 305 292 296 293 282 281 286 277 271 280 273 278 280 278 277 281 281 278 286 284 295 293 291 277 308
306 301 334 352 353 398 403 378 358 350 363 342 352 365 356 328 329 316 309 293 293 292 284 284 282 285 279 276 278 277 272 276 279 270 272 291 284 285 276 288 293 291 303
295 297 328 342 335 374 396 385 369 346 343 347 336 350 357 335 323 323 310 306 294 293 290 285 284 281 280 279 278 277 276 278 281 281 280 281 283 279 283 291 299 292 307

GFSGL_2pvu_pres_006.txt.gz
Presure
202 209 205 192 207 233 249 254 264 254 284 305 298 306 304 303 283 276 265 266 256 254 258 266 269 259 255 267 296 272 265 261 263 262 277 290 290 297 304 315 325 349 398
222 199 224 232 237 242 184 252 285 280 295 310 310 310 303 280 288 279 290 255 255 277 278 345 333 303 290 335 288 276 306 389 323 291 385 376 368 288 295 364 295 296 385
215 233 232 237 237 248 271 279 296 312 319 313 300 299 314 343 401 429 440 394 427 417 408 399 394 388 385 291 346 378 378 378 376 375 371 368 363 287 291 294 280 281 315
229 237 232 236 242 278 297 313 317 299 282 312 337 385 401 418 431 423 416 409 403 394 388 383 380 375 375 374 371 365 359 360 362 367 368 365 363 352 349 345 348 349 353
225 229 239 254 315 313 330 317 286 323 348 422 410 408 428 424 420 410 398 390 385 379 371 367 364 362 360 359 359 357 361 360 349 341 340 339 343 360 368 348 345 344 349
243 250 254 310 322 326 284 315 357 409 398 408 427 412 408 406 393 389 384 376 371 363 354 349 352 348 347 353 358 342 329 342 329 325 323 324 329 343 344 374 357 351 342
261 278 320 317 287 298 336 411 399 396 419 423 411 406 395 387 380 371 364 363 356 346 347 340 337 342 354 344 337 323 308 332 381 384 392 395 417 436 364 366 363 362 351
307 319 302 275 332 362 409 396 422 422 417 405 400 392 380 366 355 355 356 348 339 343 335 336 344 348 332 324 298 340 359 350 352 353 349 350 360 372 389 428 343 343 366
322 278 292 346 419 399 382 419 407 395 382 377 370 363 360 358 357 352 345 340 343 334 336 346 351 322 304 296 352 338 334 334 341 336 328 362 345 344 355 375 392 434 331
274 329 442 412 391 381 408 394 378 369 362 356 352 351 345 344 343 338 335 334 332 337 350 347 323 294 355 330 322 325 326 323 338 324 349 341 323 370 354 353 367 383 408
350 439 408 386 397 397 382 369 361 349 346 343 341 339 343 350 352 351 350 348 348 348 329 316 293 292 323 309 314 308 366 360 427 412 407 393 388 387 345 401 349 366 381
420 399 384 404 389 377 364 352 345 343 346 351 351 349 348 345 338 329 327 332 336 332 298 302 288 323 313 305 303 315 343 355 352 410 411 402 404 398 394 418 381 343 355
397 398 399 384 371 359 349 343 348 349 342 330 323 318 346 346 341 333 302 303 303 296 324 283 309 315 305 292 304 300 293 296 320 330 342 358 416 399 383 388 401 368 347
406 399 383 368 352 349 342 350 345 337 347 347 337 352 447 452 464 481 348 327 381 315 296 298 306 303 290 292 296 289 284 309 306 298 301 316 353 421 424 392 384 389 363
391 379 363 349 345 337 349 339 341 346 337 451 441 443 445 448 460 465 434 404 308 320 284 321 317 292 290 287 293 280 283 293 280 297 305 310 266 319 407 414 416 388 383
371 358 349 341 339 349 332 341 339 448 438 430 436 440 446 455 446 438 416 406 356 291 314 303 299 291 288 287 282 293 293 283 291 274 295 293 313 311 319 462 451 438 410
358 347 336 346 345 330 337 329 444 427 421 427 416 415 424 433 430 406 394 374 360 330 322 314 296 292 296 286 274 287 274 289 280 283 283 295 292 311 308 346 478 467 471
346 337 337 336 329 337 320 452 437 421 417 394 396 405 429 430 399 387 366 357 336 319 307 296 295 289 280 286 277 285 284 286 278 284 278 296 274 300 301 308 340 360 462
342 332 339 326 336 318 413 434 418 409 388 379 392 415 438 404 382 364 350 344 321 317 310 291 291 283 278 285 284 280 274 283 284 283 285 288 290 285 284 304 314 330 357
330 339 322 324 317 323 425 419 403 393 374 376 409 414 421 381 366 347 341 332 315 307 308 289 292 282 268 280 282 280 284 282 279 280 286 283 293 291 300 299 312 301 318
334 322 320 328 306 354 414 410 397 379 362 366 403 406 380 363 349 337 332 325 312 297 306 282 292 286 265 279 285 264 267 264 276 286 284 278 279 288 287 295 301 312 293
325 314 318 316 304 348 345 407 391 370 360 359 390 388 369 351 340 328 327 318 307 293 305 288 281 284 283 277 285 266 278 272 277 278 282 283 288 280 281 288 300 292 305
315 317 309 312 327 333 336 416 393 371 360 349 363 379 351 343 336 326 317 313 307 294 294 294 280 280 277 279 276 276 268 269 275 279 282 282 281 288 294 280 290 297 298
312 316 306 305 333 325 335 339 410 385 356 368 346 371 352 337 332 327 315 313 306 298 294 293 280 277 282 276 271 274 280 278 275 279 274 280 281 280 282 292 281 291 303
314 312 305 300 330 318 332 334 378 403 368 352 341 348 365 341 333 329 318 310 308 302 296 299 292 282 278 277 289 277 270 271 274 277 279 280 281 281 278 289 290 290 294
315 307 306 298 327 316 321 332 363 406 394 360 347 342 348 365 338 328 328 316 308 307 298 293 293 296 289 283 281 281 282 278 278 279 282 281 285 281 282 282 290 291 298

GFSGL_2pvu_pres_009.txt.gz
Presure
215 214 191 209 227 223 224 254 275 277 275 278 291 323 323 308 285 286 292 388 396 409 404 398 385 354 348 306 319 265 270 274 274 254 281 276 287 274 277 283 283 304 315
211 174 219 219 219 240 255 287 303 273 279 323 322 283 278 337 352 450 456 431 412 428 423 386 382 384 407 405 408 410 415 368 366 366 344 269 267 286 305 282 285 282 290
209 205 215 216 233 258 266 305 282 312 322 282 279 355 433 419 398 385 395 424 417 409 410 416 416 414 412 412 408 403 400 400 404 409 407 346 306 400 265 266 265 261 299
210 219 212 231 266 302 295 304 313 312 281 344 435 416 399 382 422 416 423 413 420 400 398 399 393 394 393 390 389 387 386 386 387 393 395 390 391 390 386 382 385 384 381
214 216 225 295 309 307 308 321 306 322 450 422 401 385 425 425 422 417 406 407 407 398 388 385 380 377 374 374 376 375 376 372 370 372 376 376 379 382 378 376 371 365 375
226 245 272 314 316 315 322 298 370 434 408 389 403 411 402 394 394 399 399 394 389 383 376 370 369 365 363 360 355 350 345 347 351 363 370 359 353 355 353 355 362 371 379
244 291 318 321 325 305 315 449 417 396 402 412 401 387 377 372 368 365 364 364 362 356 359 359 359 352 348 345 336 341 352 350 342 340 338 329 327 327 330 333 337 347 348
262 327 328 304 276 359 441 420 397 409 401 390 379 368 359 353 354 353 351 348 348 349 348 346 341 339 343 335 339 343 329 326 319 311 339 363 362 362 366 370 377 390 362
332 321 288 307 431 422 411 413 402 391 379 365 354 349 344 340 345 346 345 337 336 341 342 341 339 335 337 346 322 318 307 344 342 341 340 340 340 339 344 363 366 361 372
332 303 326 444 427 412 408 397 388 373 361 356 346 344 354 353 351 348 349 351 351 349 344 345 347 345 341 314 301 331 320 330 331 334 342 335 332 333 326 336 336 355 362
287 340 441 421 409 404 390 376 367 359 351 349 354 352 347 346 345 335 332 319 327 339 349 348 341 317 298 306 293 304 311 320 345 355 417 439 428 418 406 381 373 358 333
349 436 418 402 395 386 368 361 354 353 357 346 338 350 352 420 419 461 416 337 321 311 322 331 319 288 298 289 301 304 298 307 292 304 306 329 343 410 423 409 410 401 394
428 413 398 395 380 365 353 350 362 348 337 344 352 447 439 442 449 459 463 472 482 330 297 298 293 301 289 305 320 295 302 293 293 309 310 313 319 330 418 422 408 398 389
405 393 392 377 360 348 346 350 338 347 334 458 442 433 434 440 454 456 453 466 452 359 328 306 292 329 281 302 293 295 293 291 292 288 290 288 300 308 322 375 408 414 385
390 389 374 356 350 341 343 336 340 330 452 437 428 414 410 418 444 441 446 432 414 390 309 370 346 285 295 308 291 302 291 285 289 282 292 283 289 297 295 280 426 419 413
376 377 363 355 337 344 330 333 325 430 429 417 398 391 401 423 431 429 416 396 381 393 306 322 307 284 301 289 290 295 286 288 278 288 281 284 298 298 291 314 322 487 447
384 363 352 337 341 328 334 319 353 418 407 391 382 388 419 431 417 405 387 376 377 371 341 293 289 298 310 290 289 296 283 286 282 281 284 276 293 291 291 288 305 316 479
363 351 343 335 330 325 323 307 346 410 395 371 372 414 429 422 412 385 372 368 362 341 335 305 314 295 296 287 287 283 276 281 279 283 286 283 284 292 291 296 292 312 323
352 348 333 331 320 327 312 337 341 408 379 364 370 410 424 415 386 373 361 356 348 332 321 302 301 301 289 285 282 284 279 281 278 284 281 279 284 284 291 290 301 303 290
338 337 332 322 319 318 304 332 338 410 373 363 363 398 411 388 373 355 350 345 338 325 311 304 291 295 288 280 279 284 279 282 284 279 269 285 283 267 270 289 292 299 289
335 333 327 317 320 312 305 326 337 380 383 364 355 380 395 373 357 343 337 340 328 315 303 305 289 290 279 289 280 278 278 271 264 272 267 276 284 279 287 280 295 290 303
332 328 319 316 318 305 300 321 326 350 403 364 354 361 384 362 345 334 334 329 323 314 301 303 294 288 275 284 281 265 277 285 275 278 272 283 281 283 282 285 288 293 289
332 317 315 315 319 301 331 319 320 334 377 387 364 349 373 359 348 334 328 323 321 314 302 300 291 295 282 276 282 282 276 277 273 270 273 272 277 279 277 274 281 292 289
320 318 313 314 309 297 329 315 315 324 378 412 366 349 344 367 343 335 327 322 323 313 306 301 289 291 294 286 279 275 274 280 275 275 279 279 276 279 276 280 286 279 288
318 314 312 313 300 322 327 311 315 323 373 376 409 363 346 367 350 338 332 323 319 313 308 302 298 289 298 292 294 280 281 282 272 273 276 276 279 279 281 279 286 289 285
318 309 312 301 299 342 320 311 316 323 364 392 368 399 358 346 363 349 333 330 327 318 311 306 304 298 293 292 293 286 281 280 278 280 284 288 282 280 284 286 291 287 291

GFSGL_2pvu_pres_012.txt.gz
Presure
150 204 161 197 217 215 215 219 223 228 227 255 279 326 332 338 339 319 402 436 423 411 401 397 389 386 419 424 435 394 390 364 348 309 299 311 288 291 301 296 286 292 302
120 126 127 220 216 214 227 224 226 238 272 300 343 338 293 287 470 433 407 395 387 382 396 410 400 396 396 387 403 410 382 381 387 377 359 336 290 279 284 292 270 277 283
206 204 221 216 216 223 241 230 269 291 326 346 337 307 420 422 404 401 403 420 417 418 411 402 401 397 391 387 394 401 415 419 406 387 367 366 370 367 254 260 255 258 267
209 213 216 217 238 248 281 306 318 341 345 311 319 429 431 412 399 405 407 399 393 396 404 399 393 389 394 389 387 392 399 404 411 418 417 412 414 415 415 327 277 256 254
214 225 245 251 264 280 325 327 350 330 296 438 423 409 400 402 399 390 383 378 371 369 380 395 394 391 391 386 384 377 375 375 381 387 389 387 390 391 392 393 400 404 409
228 255 251 270 333 324 344 346 278 453 433 417 402 409 392 390 381 373 365 361 357 356 356 360 370 383 382 381 377 374 372 373 374 370 366 357 355 361 366 367 375 380 386
321 323 286 331 339 339 282 348 443 422 411 406 400 389 380 374 366 359 353 346 340 340 345 350 353 355 358 361 361 359 349 349 347 347 347 349 356 365 373 374 374 376 380
280 328 337 289 279 310 435 433 414 404 398 387 374 367 362 359 354 351 349 347 347 347 349 345 340 346 352 351 346 338 346 340 343 354 339 341 344 348 347 346 349 352 354
329 348 306 280 338 434 419 410 400 393 376 365 357 356 359 361 358 352 344 338 337 337 337 347 353 337 335 338 334 331 337 344 328 353 327 354 345 348 313 311 354 328 366
337 273 294 363 417 408 398 396 389 372 358 349 358 352 344 344 343 359 365 361 359 362 359 338 346 352 338 332 333 335 317 330 321 330 458 456 454 381 351 341 344 348 352
289 311 435 411 395 392 390 387 367 358 349 353 343 346 339 468 460 453 453 459 457 458 468 316 334 345 349 340 327 305 307 312 322 302 308 315 316 346 416 435 426 420 359
347 421 405 391 381 380 387 367 358 351 347 339 338 391 445 438 428 427 439 458 466 462 473 347 319 337 341 318 298 313 299 303 299 303 303 312 311 314 327 325 362 431 412
417 402 388 384 375 384 370 356 349 342 338 333 360 427 414 402 403 414 432 455 456 469 480 337 302 330 313 294 296 295 288 297 300 298 292 294 300 302 309 304 305 427 415
403 457 418 386 370 372 360 346 341 336 329 356 422 400 389 395 406 420 436 447 451 445 431 391 309 295 297 286 315 298 314 294 293 287 293 297 293 296 307 303 314 330 426
472 435 392 371 370 359 340 340 334 329 340 349 407 381 380 421 423 432 431 424 410 404 396 364 321 301 294 290 298 292 284 291 290 286 286 290 285 295 287 306 298 314 366
417 395 373 363 354 342 338 328 327 320 347 402 391 379 400 432 429 418 406 394 385 376 362 319 307 304 296 308 289 305 288 298 283 290 276 281 284 285 279 295 305 301 317
398 373 361 350 346 333 330 323 319 328 342 412 385 370 417 428 419 396 382 372 366 356 373 317 303 328 311 310 280 298 281 292 286 281 289 286 289 284 286 286 286 297 323
370 357 350 338 335 329 320 327 311 336 332 399 383 365 406 425 397 380 368 360 355 360 356 341 325 314 294 302 282 289 281 289 286 276 286 285 290 279 282 282 284 290 304
359 348 338 335 329 321 318 322 305 332 326 353 383 365 402 422 384 367 359 353 356 353 341 327 316 298 287 296 284 288 282 279 279 280 280 282 279 289 285 276 288 299 293
342 341 337 331 321 319 317 313 308 328 320 332 393 367 379 390 373 359 350 345 347 343 326 319 310 293 290 296 288 285 286 275 279 279 281 283 265 274 290 283 286 291 298
348 341 333 322 320 316 320 302 312 322 316 326 411 367 357 380 364 348 341 340 341 334 320 314 305 287 300 289 295 284 277 277 276 279 277 264 273 264 284 291 285 293 285
341 330 324 318 320 314 305 299 337 319 312 326 380 385 358 369 365 345 338 331 331 331 320 311 301 287 289 280 291 281 281 277 273 267 279 280 277 282 274 276 285 281 279
333 325 319 320 315 311 303 306 338 314 312 321 333 388 370 349 376 350 335 331 330 328 322 311 302 292 292 285 281 286 280 277 279 273 268 278 275 278 274 278 281 278 283
323 321 320 313 310 304 303 328 331 310 313 321 324 408 390 363 344 367 348 334 329 323 322 316 307 299 294 293 290 287 274 272 280 276 277 276 280 278 280 279 280 283 285
326 322 311 303 304 308 328 334 305 312 319 324 323 350 402 383 363 342 367 341 334 324 321 319 312 305 296 297 292 285 297 294 280 279 282 276 269 270 278 286 291 290 287
322 301 304 305 311 324 309 302 310 316 319 326 322 337 404 396 378 365 343 363 340 334 324 319 317 311 306 300 298 296 287 287 296 297 294 284 279 276 278 283 286 290 290

GFSGL_2pvu_pres_015.txt.gz
Presure
197 197 202 216 213 215 220 230 223 235 243 244 264 300 287 329 363 309 286 297 405 428 421 413 409 416 405 392 383 380 378 386 391 387 389 392 403 340 307 283 309 324 321
197 201 206 212 212 227 233 234 240 252 269 291 343 322 370 279 290 437 431 423 409 402 409 413 411 411 416 410 402 395 390 381 385 374 379 381 384 392 348 336 280 311 321
201 206 210 221 232 225 236 249 258 282 273 287 358 302 290 443 433 427 417 418 404 396 392 390 391 389 396 405 399 393 394 393 390 402 358 379 379 381 386 348 338 296 299
212 215 226 231 231 252 263 314 277 363 336 281 299 445 434 422 415 400 396 392 389 384 377 373 370 370 372 385 398 393 387 387 393 393 394 393 385 407 380 386 361 345 323
224 235 248 241 266 288 344 363 316 301 314 410 434 428 415 404 402 383 376 369 368 366 362 357 355 352 354 360 373 395 388 391 386 394 384 377 381 386 397 413 427 434 407
250 246 261 290 370 342 276 298 311 341 429 415 411 409 400 385 377 364 360 355 354 352 350 351 346 343 340 346 354 360 382 381 377 374 369 369 373 379 383 386 395 406 416
342 352 346 339 343 309 311 327 436 420 404 398 405 389 378 369 361 358 356 352 348 351 355 357 354 350 347 340 342 350 353 361 361 364 361 357 363 362 363 360 363 370 376
332 291 264 307 303 313 347 427 410 397 386 399 386 376 363 360 357 345 341 345 351 355 345 343 346 352 357 356 340 344 351 350 351 345 347 344 343 342 347 350 353 360 365
292 290 293 312 332 426 417 403 391 390 383 379 369 357 353 346 342 341 431 452 449 448 453 441 375 362 338 345 350 339 346 345 345 338 336 339 348 365 368 376 386 398 346
306 311 320 360 426 409 406 428 402 383 379 364 352 347 343 338 363 427 413 411 417 421 443 459 461 469 374 337 354 337 337 333 334 345 335 333 445 443 455 453 451 386 351
313 335 435 414 422 471 451 410 386 377 362 351 340 339 336 355 411 394 397 405 415 433 460 474 467 466 324 339 354 339 334 339 330 324 316 308 308 309 317 319 322 335 412
408 428 415 475 473 386 417 389 377 362 350 337 335 331 351 416 394 387 423 429 435 445 452 461 474 495 321 346 353 345 335 314 302 305 299 297 304 298 299 299 306 327 326
425 475 420 391 379 415 387 372 359 344 335 332 330 344 357 396 385 430 437 435 443 456 459 455 454 336 316 348 343 347 304 314 301 296 297 298 291 299 306 306 306 312 310
433 408 478 446 406 384 371 358 343 336 330 327 319 342 394 382 439 433 426 434 426 417 417 421 420 320 312 337 337 302 320 295 291 286 292 291 289 298 296 301 294 306 320
492 464 433 402 377 365 353 341 339 326 329 317 339 336 392 379 426 418 412 398 394 395 395 387 340 312 304 313 301 291 293 288 294 292 291 288 289 287 289 277 295 300 305
449 416 387 361 362 351 343 336 325 323 321 311 335 333 384 396 433 402 389 382 379 377 368 357 318 307 301 305 287 288 296 279 280 294 290 282 288 280 290 286 290 291 297
389 368 356 354 352 344 337 328 321 329 308 332 328 331 379 405 418 385 376 370 366 356 351 341 316 304 296 292 295 289 296 273 283 292 286 288 285 286 292 290 287 288 293
361 358 350 350 347 337 328 324 317 326 308 334 323 328 379 385 399 379 368 359 353 349 342 335 314 303 298 299 293 292 291 275 284 284 286 281 278 286 287 291 287 283 288
363 363 353 351 339 329 322 320 316 317 303 332 321 327 383 368 390 373 364 353 349 346 348 339 315 309 305 303 296 294 293 278 285 283 281 279 280 279 284 274 289 287 283
373 360 349 336 330 323 324 313 314 304 335 327 316 326 332 369 380 367 359 349 348 341 342 340 326 315 304 303 294 283 287 279 289 277 277 280 276 280 284 267 273 283 288
347 346 337 332 325 324 319 309 307 312 343 314 315 326 324 391 358 370 357 346 342 338 336 331 320 310 304 304 289 280 295 280 289 274 275 276 274 279 279 272 285 279 279
338 333 329 326 328 314 310 306 311 333 328 304 317 322 325 333 379 352 364 347 339 336 334 331 319 307 302 300 290 279 292 286 284 280 276 277 276 269 276 279 280 282 278
335 334 332 329 311 307 306 315 328 293 306 315 318 324 330 326 415 371 360 353 341 336 328 328 327 310 302 301 292 279 284 287 284 280 281 278 277 276 275 279 279 278 279
342 337 330 305 307 306 316 331 294 301 310 321 326 324 329 323 339 414 365 370 350 335 334 328 327 321 306 301 296 289 282 288 280 280 282 279 280 279 278 279 281 280 280
332 307 307 306 311 320 310 302 302 299 319 320 324 323 324 324 334 397 410 367 360 349 335 333 327 324 317 307 303 293 289 291 290 292 285 292 287 276 274 277 280 285 287
308 307 307 316 319 297 309 304 310 318 318 319 322 323 326 330 336 353 426 397 376 348 360 341 332 325 322 318 310 306 300 295 286 292 291 286 288 292 295 293 295 296 292

GFSGL_2pvu_pres_018.txt.gz
Presure
188 193 197 193 204 212 220 232 240 240 238 260 270 323 367 306 314 323 301 394 443 439 430 422 421 418 416 410 413 404 404 404 396 392 387 389 393 419 402 378 364 313 341
199 191 200 186 212 235 245 229 247 243 269 267 273 309 313 305 320 439 432 423 418 414 414 407 402 401 396 394 397 402 409 413 418 399 369 382 376 374 386 416 398 382 352
201 203 213 216 230 233 244 250 274 301 286 305 315 320 362 432 418 415 410 402 401 394 386 378 375 378 383 381 379 379 381 385 406 417 415 398 364 360 364 402 393 398 416
210 216 220 235 243 242 279 282 303 317 309 323 345 436 422 410 400 402 394 384 377 369 362 358 358 358 361 370 364 365 368 367 380 404 403 404 414 364 378 370 395 391 385
220 223 245 254 261 276 337 330 318 326 341 442 424 410 404 396 397 393 377 374 365 360 359 360 358 358 362 359 362 354 353 356 358 375 391 388 390 396 398 389 378 418 386
236 248 268 267 281 339 338 335 335 402 429 415 410 420 401 393 391 374 362 361 354 350 350 349 349 347 344 352 362 357 345 345 349 354 382 386 386 392 391 393 397 398 409
244 257 277 296 338 339 336 344 435 424 469 458 428 406 391 381 370 361 353 348 345 360 388 444 456 467 476 375 343 359 349 341 341 349 361 381 375 372 377 378 383 388 394
270 273 323 347 344 340 431 429 451 481 428 405 402 388 372 360 360 351 341 351 364 405 400 408 417 428 444 465 369 345 361 347 338 345 353 361 361 356 357 356 362 367 372
276 323 345 327 337 430 421 497 405 388 403 394 380 366 355 350 344 339 354 372 405 395 394 409 417 424 439 458 455 353 348 356 338 349 348 341 346 346 346 345 346 353 352
299 345 317 435 434 464 421 397 389 415 395 374 359 350 347 341 336 352 365 402 400 440 436 434 435 453 483 472 464 373 335 351 343 347 336 335 341 341 345 401 420 426 424
339 317 449 473 426 484 485 437 408 386 365 356 347 338 337 333 347 350 396 447 448 441 437 441 448 453 459 462 472 358 335 345 343 327 335 329 324 322 314 310 312 317 322
319 450 453 416 464 463 430 401 378 358 353 346 335 333 328 343 341 387 433 430 434 442 446 451 456 463 470 478 351 322 351 341 335 330 320 307 298 303 303 297 297 300 301
444 441 405 386 441 415 389 369 358 351 346 334 328 328 317 337 345 408 429 422 410 407 409 413 422 433 442 356 319 351 340 338 329 312 300 296 298 290 291 293 305 307 304
444 406 384 376 371 366 367 357 348 345 334 327 330 315 311 333 387 437 408 397 390 390 394 398 404 409 325 319 348 348 338 323 308 300 294 286 289 288 294 295 293 294 306
413 384 373 363 371 362 353 351 347 334 329 320 326 307 337 329 383 415 394 384 380 378 379 378 366 325 315 325 335 338 326 306 301 291 285 287 286 285 286 288 288 294 286
390 367 360 359 371 358 354 344 336 326 322 320 310 326 331 331 382 399 383 375 370 367 363 355 331 314 305 322 332 307 294 304 289 287 284 285 284 287 283 284 283 293 292
372 356 350 366 370 356 343 334 325 323 312 316 307 336 321 332 350 397 378 370 364 357 351 343 323 308 302 311 293 297 307 292 290 278 279 287 287 282 284 283 284 292 291
355 341 361 350 355 349 335 329 327 314 306 308 330 329 312 330 330 380 378 365 357 348 347 336 320 306 300 295 294 291 290 289 287 281 278 280 286 280 279 278 286 284 290
344 338 353 347 337 337 328 332 312 306 309 325 304 315 318 326 332 364 381 366 356 348 342 334 321 306 301 294 293 289 289 289 287 282 273 280 285 280 283 281 286 283 268
340 340 351 337 338 334 331 309 306 307 320 295 293 315 319 324 333 329 368 370 358 350 345 336 329 313 302 296 294 289 295 286 286 286 272 286 275 277 280 276 279 281 272
340 338 348 345 339 332 306 309 307 321 309 301 300 320 326 325 331 325 334 360 364 351 345 338 334 323 312 303 297 296 291 290 280 281 282 277 279 275 273 277 276 279 284
342 336 335 340 332 311 308 309 322 305 305 304 315 320 323 324 324 325 333 400 364 350 349 338 336 333 324 311 305 307 292 292 287 280 283 279 282 268 275 274 277 276 277
317 340 335 331 309 307 310 320 300 311 304 316 317 318 321 324 326 331 333 338 409 367 348 343 337 332 331 319 309 305 303 300 294 285 279 299 283 284 284 276 275 277 282
357 344 321 312 307 312 319 297 311 297 305 310 312 317 319 322 330 335 336 342 357 411 366 349 339 337 327 330 317 307 302 298 301 293 282 280 289 286 288 285 281 279 280
318 302 310 317 316 320 297 307 293 299 307 305 311 314 319 323 331 340 348 349 350 411 402 364 348 336 333 327 331 296 302 304 302 299 296 289 283 290 286 281 285 289 289
306 324 328 322 325 297 300 291 290 304 307 313 310 317 319 325 331 348 354 356 357 360 420 392 359 348 339 329 330 325 327 316 302 303 302 296 294 292 293 289 287 286 287

GFSGL_2pvu_pres_021.txt.gz
Presure
185 187 192 194 194 198 207 219 237 241 243 255 295 305 282 360 350 350 442 432 420 413 413 414 410 405 404 403 406 408 410 415 424 403 407 421 412 407 421 452 467 353 325
194 192 191 200 205 212 218 237 256 255 273 291 283 289 352 362 447 430 414 409 405 398 402 403 395 387 384 379 376 376 382 393 399 398 403 410 416 408 392 394 417 424 406
192 198 203 207 214 227 252 250 262 287 321 307 332 359 444 434 438 442 426 412 402 398 393 382 378 376 371 369 367 362 359 364 380 387 384 388 407 407 405 394 395 426 399
200 198 209 223 252 262 250 288 318 356 363 325 443 437 477 471 451 428 414 402 394 380 369 364 364 361 361 361 361 361 362 358 359 370 371 372 379 403 391 381 386 387 409
211 216 247 244 263 253 288 338 345 338 425 433 433 469 403 391 397 407 393 380 368 362 359 355 354 353 353 355 359 349 346 349 356 362 358 362 366 378 407 405 398 386 376
239 237 244 260 248 287 331 350 336 434 427 432 427 396 383 410 398 380 363 355 354 353 350 347 355 370 423 419 421 438 471 346 348 358 354 351 355 364 394 399 402 403 420
234 238 259 253 272 344 348 345 436 449 429 408 410 425 401 380 370 358 351 348 347 343 358 365 410 406 404 401 402 416 433 447 341 357 356 345 346 356 382 392 394 394 402
241 259 251 260 341 351 402 452 452 414 469 433 417 390 372 361 357 350 344 340 351 361 407 436 460 458 449 431 427 423 430 451 342 355 353 338 344 357 379 394 386 391 391
248 253 257 345 357 454 468 416 408 479 426 402 379 363 357 354 344 340 335 347 360 433 440 446 443 442 440 438 441 442 452 460 340 354 349 340 349 356 384 377 369 368 365
258 255 279 364 479 444 412 389 384 412 376 365 359 357 351 339 339 327 346 349 445 438 435 441 449 451 447 448 461 489 474 466 339 361 351 347 359 353 349 343 348 345 343
284 304 370 477 447 413 385 369 374 369 362 352 349 346 337 339 325 326 344 451 424 409 406 407 415 431 451 461 451 455 460 348 335 359 350 352 338 335 347 346 335 328 330
326 373 486 450 414 386 371 360 372 359 355 354 339 337 329 328 313 340 345 418 402 394 393 400 412 421 430 444 459 475 348 318 349 357 345 334 338 313 315 308 301 298 298
378 494 456 419 385 366 349 369 368 359 351 340 334 327 328 310 341 335 412 401 388 385 387 393 403 413 429 442 348 334 315 344 338 333 334 318 309 297 295 296 292 290 289
474 460 426 392 366 352 371 365 362 357 343 333 331 318 313 354 320 339 396 390 383 381 379 382 388 386 349 321 317 329 340 326 332 323 312 299 293 299 285 287 294 301 300
452 427 396 372 348 358 359 362 361 343 334 331 317 313 333 338 319 336 350 384 376 373 368 366 356 336 317 311 323 332 323 331 320 306 297 296 292 283 288 285 286 292 291
406 391 369 349 338 356 353 346 347 334 335 313 313 322 323 305 325 330 337 388 372 369 363 354 335 320 311 313 332 328 323 319 303 293 286 289 282 283 281 282 287 285 288
380 363 350 336 341 355 347 342 335 339 309 309 313 326 300 311 327 331 338 390 374 365 359 351 330 315 306 304 321 323 317 291 299 284 285 283 285 276 284 286 281 289 287
376 360 347 338 343 350 347 342 336 310 309 309 326 302 307 317 328 329 336 334 379 361 356 351 334 317 304 301 318 324 306 292 299 278 286 279 282 275 280 285 278 283 280
367 365 353 348 344 337 343 344 314 310 312 321 300 310 313 323 324 326 329 332 370 372 357 349 342 323 306 300 293 321 289 290 299 283 281 282 283 274 279 283 279 283 281
365 383 362 355 336 337 331 314 307 312 321 299 310 308 319 321 324 328 329 332 336 384 370 356 347 336 321 303 296 289 298 287 283 288 286 281 287 271 281 279 284 275 281
352 390 336 356 347 340 320 314 312 320 300 310 293 306 308 317 318 320 331 335 336 335 387 363 354 345 337 319 302 295 291 281 281 282 284 286 284 281 275 283 275 278 275
347 329 306 354 317 304 318 315 320 299 307 291 294 307 313 310 317 319 327 336 344 344 336 390 356 348 343 333 321 306 296 294 292 285 288 282 280 280 285 273 283 278 277
337 320 327 319 307 325 325 322 295 305 292 295 289 314 312 311 315 318 328 335 356 358 353 362 397 354 347 339 332 331 317 303 297 294 294 289 288 282 274 284 283 277 282
334 312 326 310 338 341 329 298 301 293 293 307 312 313 314 315 318 324 334 336 354 364 362 358 404 394 353 344 338 332 332 317 311 312 304 300 294 293 290 277 282 293 295
324 325 305 335 360 305 297 304 298 307 312 315 320 320 322 324 325 330 335 340 350 364 368 364 360 419 397 354 342 337 333 329 321 314 311 309 307 301 299 303 300 288 287
320 279 321 329 303 302 310 307 305 306 309 317 322 328 329 330 331 335 338 342 351 361 369 364 372 368 413 385 355 345 337 334 328 325 321 316 310 308 307 305 304 304 299

GFSGL_2pvu_pres_024.txt.gz
Presure
180 189 182 192 200 203 204 219 225 234 250 254 264 258 282 314 370 432 473 486 468 475 458 437 423 413 403 398 400 401 398 403 412 408 406 402 422 426 432 446 446 470 344
182 185 193 202 202 199 207 235 231 245 263 271 278 315 378 444 454 464 458 415 399 397 422 420 409 401 396 393 389 385 381 381 390 385 377 382 392 406 421 415 431 433 447
187 196 204 203 195 221 231 233 242 267 259 278 333 384 446 446 440 446 421 408 418 407 397 390 382 375 371 367 366 365 363 362 362 366 364 359 366 387 399 408 428 415 417
195 204 211 208 222 225 240 247 273 268 283 352 421 450 442 443 409 452 422 402 382 371 365 361 357 356 355 355 354 352 352 351 351 353 355 357 356 363 384 395 409 404 422
205 207 208 221 229 244 254 265 265 319 382 461 467 435 454 393 451 411 382 369 357 354 352 351 351 351 352 355 358 357 356 356 359 359 352 348 355 355 373 385 389 405 407
201 215 224 229 242 251 280 267 305 437 494 445 423 399 455 422 392 366 356 352 349 348 347 340 358 358 366 415 414 413 411 411 410 411 426 361 343 354 367 373 376 382 422
215 228 233 249 254 279 261 390 501 503 434 408 391 410 389 369 361 355 352 342 341 339 344 362 424 459 465 464 447 449 455 415 408 404 415 470 343 350 365 366 366 373 386
228 230 248 261 275 268 379 495 459 425 399 379 381 381 364 359 356 350 339 341 337 356 358 432 421 420 430 452 448 444 449 444 431 413 424 457 344 352 361 356 356 359 378
240 240 261 252 272 314 490 459 425 393 373 375 375 364 361 353 349 337 338 326 347 352 413 406 407 411 418 432 449 442 441 443 447 442 438 464 338 357 351 345 352 362 381
238 257 242 270 293 489 463 420 388 366 377 383 366 360 351 340 337 332 326 342 342 409 398 398 401 413 423 429 441 444 453 474 472 471 466 340 353 350 337 350 364 393 384
269 262 266 284 482 466 425 391 363 374 371 368 363 349 340 340 325 324 360 329 346 398 391 392 395 403 418 431 448 459 452 453 463 465 340 352 352 340 356 359 354 351 348
254 299 281 460 450 403 380 366 349 362 368 366 349 338 339 322 320 334 314 334 348 393 383 386 391 393 408 423 446 466 477 463 346 329 362 346 352 343 335 344 347 338 326
247 312 389 468 417 381 364 352 342 363 356 352 337 338 319 318 337 312 312 340 346 388 382 380 377 380 382 391 374 338 332 318 346 346 355 340 340 339 325 316 311 308 306
311 365 459 445 394 370 358 346 340 357 351 343 344 318 318 327 316 310 332 340 343 388 380 376 363 357 342 330 323 318 312 346 349 333 339 336 311 314 304 296 294 296 293
318 431 437 405 373 366 355 348 346 354 348 343 318 316 322 324 309 322 332 335 341 386 375 371 352 334 320 312 310 326 337 326 328 335 324 312 304 294 295 289 286 282 293
416 440 416 381 363 371 357 349 345 345 349 326 311 320 324 308 317 329 332 337 338 338 376 369 352 329 314 305 308 328 319 322 324 314 309 297 292 284 283 282 290 293 285
427 431 400 373 360 360 360 353 346 339 335 315 315 323 309 306 315 318 328 332 334 338 383 366 359 327 313 305 312 322 316 322 313 302 290 288 279 283 279 286 285 284 289
419 424 389 365 353 359 356 353 343 332 327 315 323 302 308 298 309 315 319 325 334 339 338 379 361 346 315 304 304 316 318 321 304 296 282 287 279 281 282 283 283 280 288
409 415 378 360 349 335 322 359 313 308 318 319 306 308 294 292 302 319 317 321 325 335 346 346 375 354 330 308 300 295 316 320 301 290 282 282 283 285 279 281 283 280 287
419 400 367 354 343 325 329 317 308 324 319 321 304 297 297 294 314 315 317 318 323 330 352 350 371 373 351 327 306 296 293 320 286 291 291 291 274 278 281 280 279 275 285
423 386 360 351 339 315 321 314 331 325 325 299 300 299 306 315 317 317 322 323 330 336 341 363 351 387 372 349 326 307 297 292 318 281 277 288 290 283 277 278 282 275 277
414 371 354 339 322 318 318 328 343 320 298 301 308 311 313 321 329 330 331 332 334 337 344 359 369 353 400 368 348 346 311 299 294 290 282 281 279 277 280 284 278 286 277
401 359 347 331 325 324 327 362 300 304 307 309 305 311 317 319 323 335 340 340 340 341 345 358 376 372 355 414 364 346 339 332 305 297 294 293 286 282 280 279 277 279 275
387 351 338 321 328 322 311 305 313 306 304 303 299 299 305 309 314 321 355 356 354 350 348 354 365 378 375 358 424 364 344 335 338 315 306 299 294 293 294 292 289 288 281
372 346 328 323 322 315 308 313 304 303 292 295 300 299 303 308 311 314 322 363 361 359 353 355 360 369 371 376 363 412 371 349 341 332 334 325 310 306 302 299 296 295 297
357 339 325 308 320 309 306 297 293 293 295 294 297 297 299 302 309 315 317 330 375 368 361 357 357 363 367 370 381 368 413 389 354 343 337 336 329 326 321 315 310 308 308

GFSGL_2pvu_pres_027.txt.gz
Presure
195 194 186 181 186 186 192 204 203 211 220 247 237 250 270 267 287 441 452 446 445 453 402 465 431 417 403 396 397 402 405 404 408 403 399 291 405 400 413 428 436 446 460
192 183 183 190 190 193 202 218 217 237 247 243 267 285 269 315 472 460 460 427 460 385 429 409 392 382 374 370 367 364 367 369 376 384 383 386 387 385 393 403 421 430 435
185 191 192 195 200 213 217 222 228 259 268 263 284 352 515 491 473 440 403 385 441 405 387 376 369 364 357 352 352 352 352 355 360 364 360 363 367 366 379 386 401 417 422
193 193 202 204 214 222 224 235 263 260 283 273 402 509 473 427 404 387 431 393 379 373 369 364 354 351 350 348 346 344 346 349 352 352 358 358 360 358 360 373 383 388 403
204 206 207 219 218 227 238 261 253 260 281 421 488 444 412 393 382 388 381 374 364 358 352 347 347 340 352 361 366 427 459 481 443 367 365 363 353 352 353 359 373 375 376
207 220 224 220 229 237 247 262 269 279 284 483 436 402 378 395 391 376 373 354 348 345 337 333 351 345 370 420 420 426 433 461 474 478 435 413 368 366 361 350 354 370 365
219 218 215 231 232 252 272 270 278 299 470 427 395 373 386 383 378 364 346 345 338 333 345 343 341 415 410 409 416 427 427 447 461 451 446 430 409 418 419 371 348 357 361
223 225 232 238 257 274 262 264 296 468 427 391 371 355 386 378 365 349 344 332 325 347 326 346 397 400 399 408 418 426 430 445 449 448 452 455 406 412 414 439 371 348 354
235 234 244 265 257 251 287 387 446 441 397 371 356 362 383 367 354 347 324 321 344 321 330 356 399 391 397 406 417 432 440 449 444 448 450 448 421 406 417 465 349 351 360
236 247 264 246 260 289 375 432 451 412 378 360 350 365 364 349 349 326 318 339 320 320 352 366 388 384 388 398 412 434 449 462 446 471 453 450 444 430 458 333 352 359 353
251 265 233 264 288 324 430 446 432 388 368 356 353 359 354 354 333 321 335 323 320 343 348 391 381 378 374 378 401 436 463 472 448 460 473 470 459 422 339 357 347 343 351
260 234 253 277 321 428 434 434 398 369 363 356 352 357 352 334 319 331 318 324 335 339 344 390 378 368 364 367 377 384 398 403 397 386 382 331 347 355 343 340 351 366 377
226 259 308 318 428 434 437 411 379 363 361 355 347 356 353 320 324 322 320 322 332 342 347 390 376 358 351 341 325 328 320 318 319 355 355 345 340 346 354 340 337 344 342
279 309 318 419 435 430 424 391 365 350 362 354 345 344 323 316 326 316 310 316 326 335 344 347 382 359 339 323 318 315 315 336 339 341 341 342 334 332 341 328 316 315 311
308 317 411 440 435 417 409 377 358 356 362 357 345 317 321 325 309 308 303 310 321 326 337 346 386 362 331 317 308 309 336 335 330 326 328 329 334 311 310 302 296 301 299
319 417 447 433 418 418 395 365 351 347 332 359 316 318 318 323 311 303 296 316 321 322 329 342 355 376 332 315 308 306 329 319 320 324 326 309 304 303 299 293 293 292 290
445 436 428 417 406 418 381 359 346 332 323 317 314 323 325 301 307 303 308 318 319 321 322 332 350 386 361 318 307 305 324 316 325 320 308 303 299 295 291 289 286 280 281
436 429 429 415 400 409 367 353 340 329 322 317 327 325 303 303 304 313 319 322 326 328 330 336 334 346 381 342 310 305 312 315 319 311 301 296 291 287 282 279 276 278 288
436 432 429 414 419 388 357 348 334 326 319 337 332 311 302 310 316 321 327 332 336 336 335 337 339 364 346 374 331 308 304 317 314 309 299 293 285 287 278 279 275 277 284
426 433 436 421 407 371 350 341 328 324 324 343 303 307 311 309 313 310 316 320 331 350 343 343 342 349 376 358 369 326 308 299 317 315 303 296 287 278 282 280 283 280 284
421 418 420 414 395 361 344 335 325 325 356 303 312 309 304 302 308 309 311 313 319 336 365 358 349 350 358 379 365 369 330 309 297 314 314 301 291 282 283 283 280 282 277
416 421 406 413 379 353 336 334 326 320 307 316 310 302 297 300 300 300 305 311 317 321 340 370 362 355 356 370 379 365 372 340 313 299 297 314 303 290 287 289 281 275 277
425 409 411 405 364 346 334 322 322 316 313 310 302 298 295 299 298 296 296 303 310 317 323 381 376 364 358 362 376 378 367 376 353 323 307 296 317 300 281 283 287 285 280
415 403 410 390 357 338 331 322 318 313 306 298 296 294 294 292 296 295 296 298 305 311 317 328 388 378 367 359 373 371 379 374 383 352 338 315 305 296 295 292 284 283 282
404 397 399 378 356 334 326 324 315 309 303 298 293 292 291 291 291 292 295 296 300 307 315 320 360 388 379 366 359 373 369 382 365 403 360 345 332 315 307 303 297 298 293
397 390 392 372 352 333 320 327 317 312 299 294 291 286 287 289 291 292 291 295 298 307 311 319 331 390 387 378 361 362 369 374 393 370 425 371 352 343 340 320 312 308 305

GFSGL_2pvu_pres_030.txt.gz
Presure
191 194 195 186 190 186 191 185 201 226 235 232 252 266 275 250 297 313 296 467 430 413 399 398 404 392 388 381 377 374 372 376 384 379 372 369 386 415 419 414 411 407 416
203 196 191 189 190 184 204 221 213 244 248 262 263 252 276 310 286 394 443 416 395 411 397 391 384 379 370 367 363 356 357 361 368 371 361 357 363 372 388 407 407 408 407
194 196 197 198 220 215 220 227 242 250 243 255 256 264 279 299 467 432 401 384 388 389 386 379 366 361 353 350 347 350 357 359 362 370 363 352 353 362 368 378 389 403 402
197 203 215 216 228 230 231 240 246 244 254 226 256 287 388 462 427 400 381 368 393 385 369 361 353 342 340 364 352 350 394 424 424 430 437 450 391 363 360 365 372 380 390
209 210 215 228 226 228 238 241 240 252 288 276 293 417 465 433 399 372 360 394 380 364 359 341 332 353 338 338 367 412 411 414 418 423 432 438 455 487 375 366 365 367 371
215 211 218 223 218 233 238 243 246 265 290 283 408 454 439 402 377 360 371 373 359 355 332 324 343 330 352 364 404 404 405 417 430 441 436 437 457 471 483 375 366 361 359
212 218 217 220 229 245 243 234 245 282 301 400 453 443 409 380 365 358 365 353 355 329 334 338 326 349 357 400 389 392 404 422 439 452 444 442 450 452 470 438 369 365 354
213 215 233 230 243 241 234 247 260 302 403 454 441 417 384 366 355 358 356 358 326 331 338 333 345 352 382 392 384 380 394 432 455 454 455 440 440 448 450 442 411 368 360
221 235 244 245 241 237 283 275 287 409 460 443 423 392 369 361 353 361 360 325 321 335 324 335 350 353 396 382 370 372 391 445 469 470 443 455 442 444 450 434 406 414 399
235 240 244 254 242 256 269 282 355 460 444 429 404 374 361 359 350 360 339 310 332 320 323 334 345 350 392 370 364 362 360 387 493 454 453 474 446 447 448 415 409 409 416
241 201 252 242 248 267 302 349 361 444 432 414 387 364 357 358 348 351 317 330 319 312 324 324 341 346 389 363 352 332 328 332 346 472 452 467 452 449 439 412 428 459 419
195 257 242 250 289 279 330 359 442 428 421 398 371 354 361 355 344 342 320 325 313 303 323 324 333 343 387 353 342 324 321 318 320 323 330 387 406 401 393 344 331 339 357
256 245 252 296 270 318 364 450 434 421 415 384 361 348 369 356 319 320 326 316 308 307 327 325 326 344 385 352 326 319 312 320 337 352 350 349 349 346 348 347 347 349 358
217 268 293 265 320 341 401 442 427 419 404 372 352 335 330 318 325 322 319 310 307 319 326 329 329 344 377 367 323 314 306 332 334 333 330 333 344 349 350 352 340 338 344
293 288 263 314 338 380 381 433 426 419 391 361 344 331 321 317 328 326 304 305 319 327 335 334 333 332 340 380 326 312 308 332 331 331 331 326 323 327 335 335 333 326 321
271 264 313 331 356 381 366 433 428 415 372 353 337 325 323 330 328 301 310 324 331 335 337 339 340 344 353 369 347 316 307 325 318 318 320 327 325 315 308 306 306 299 300
263 313 335 364 396 363 405 434 422 399 360 347 332 322 336 329 302 310 318 315 318 321 329 362 344 342 336 352 376 323 307 310 315 318 323 318 302 301 300 291 290 291 288
314 321 353 316 374 350 438 423 414 374 355 345 326 329 343 303 313 313 307 313 316 317 320 329 372 355 348 344 355 371 317 306 315 319 319 304 298 300 289 290 286 288 288
324 354 307 364 362 378 418 416 399 361 346 338 328 352 305 316 310 300 302 302 303 306 313 319 331 377 364 352 363 365 360 314 311 313 316 302 294 293 288 287 286 281 279
352 316 366 353 353 427 410 412 385 354 341 335 340 314 318 312 300 298 301 297 294 301 306 310 319 338 383 370 354 374 370 350 313 315 316 307 297 291 288 286 278 279 277
316 374 350 342 436 416 418 406 375 347 338 328 330 316 309 300 301 298 293 297 295 295 299 307 311 321 343 388 370 356 384 373 348 312 314 316 301 296 289 286 284 284 279
385 360 344 334 425 412 414 394 368 345 338 324 312 316 308 300 295 293 292 290 291 292 293 300 308 313 324 392 392 370 359 393 375 363 316 311 317 304 294 290 277 276 279
353 357 333 333 419 405 403 388 362 342 333 325 314 313 299 298 292 289 289 290 290 288 293 294 303 310 319 328 407 393 367 363 393 373 370 322 307 315 311 297 293 291 281
352 341 323 428 413 396 400 384 364 340 329 326 318 314 303 295 292 287 284 289 286 287 291 294 296 306 312 324 341 407 393 362 370 389 369 379 358 316 306 315 310 295 289
338 331 317 424 410 393 393 385 364 340 327 320 315 315 309 303 292 291 283 287 289 284 289 293 296 306 311 323 329 393 407 391 366 374 378 370 397 372 340 317 306 307 311
325 317 316 365 406 386 387 392 361 342 329 318 315 324 317 314 309 295 290 288 292 289 290 294 297 306 312 324 328 355 409 405 392 377 376 371 389 385 386 365 343 324 313

GFSGL_2pvu_pres_033.txt.gz
Presure
207 199 190 181 183 189 186 197 201 205 242 250 252 250 242 245 259 276 281 313 361 445 417 397 383 400 396 383 373 371 367 364 372 362 365 359 359 364 372 381 390 415 436
191 193 193 184 191 194 203 207 235 245 252 245 249 258 239 265 292 290 323 456 441 414 394 380 393 384 372 368 360 347 343 358 361 358 352 358 361 360 366 370 374 383 402
186 186 188 209 207 217 216 238 247 244 243 258 249 229 255 278 292 349 459 439 412 392 377 370 374 369 360 337 337 351 347 355 376 427 424 430 437 438 437 372 366 371 379
185 193 213 212 212 213 237 243 244 238 251 256 232 264 305 288 343 458 437 413 389 374 366 374 368 353 331 346 343 345 363 387 409 406 411 419 428 435 442 446 414 366 370
200 215 203 211 220 236 244 240 241 232 238 262 277 293 285 326 457 439 418 390 373 363 367 367 343 327 342 338 355 365 397 399 389 393 405 431 441 446 448 448 451 454 360
210 208 215 222 200 215 248 238 221 217 241 304 265 281 324 460 441 418 393 374 367 364 364 342 320 337 327 336 363 393 396 378 378 391 427 455 458 455 454 453 457 472 459
213 212 214 216 231 242 243 218 212 248 269 270 282 317 457 441 424 395 376 363 358 363 357 322 336 325 330 336 353 397 372 370 370 379 463 472 474 457 457 450 456 469 487
207 199 217 224 235 250 238 225 243 277 265 283 319 408 444 424 403 376 366 360 355 354 326 333 324 317 337 345 376 385 362 353 346 361 484 461 448 450 453 446 446 465 462
179 216 218 234 247 253 237 238 277 262 270 306 406 420 433 411 387 363 355 361 347 338 322 330 317 310 341 348 394 367 347 332 336 337 490 450 464 471 446 444 440 453 437
217 200 237 245 254 235 232 249 279 270 300 350 377 443 422 397 371 355 366 357 340 319 329 319 312 325 340 344 395 352 332 325 322 327 335 453 455 450 446 443 442 426 410
225 233 247 256 241 250 262 276 270 284 390 322 362 437 413 382 357 350 368 329 326 327 318 310 310 330 339 345 391 348 323 322 322 348 333 359 455 444 435 432 417 407 407
236 247 259 250 256 252 272 279 280 358 326 368 377 429 399 368 349 339 325 325 328 318 307 310 332 337 339 349 382 345 323 316 325 335 343 349 326 398 454 431 417 419 426
242 261 248 253 255 262 279 263 361 330 379 357 442 420 383 357 340 325 328 329 322 306 323 335 338 341 345 349 363 351 322 314 329 329 330 334 337 338 326 330 350 353 354
260 250 251 248 261 273 266 350 339 377 364 365 433 405 370 350 333 323 334 327 308 324 322 325 335 372 349 343 345 375 325 315 329 329 329 339 344 348 340 342 346 348 349
219 261 253 253 284 271 344 352 359 364 351 432 423 385 359 343 326 335 327 308 319 317 321 324 326 341 376 353 345 371 332 313 319 331 326 327 327 328 331 335 339 343 353
249 262 270 262 268 273 355 323 366 354 411 427 405 366 351 337 324 341 307 317 309 309 307 315 321 328 359 375 355 357 365 319 310 320 320 317 325 334 332 335 333 335 333
255 265 288 287 339 338 341 378 361 350 429 420 384 356 344 330 342 313 316 311 304 303 299 305 312 316 329 391 377 355 367 334 310 314 317 326 324 321 315 312 311 304 303
263 271 266 292 338 334 388 364 357 337 426 418 370 349 341 323 331 317 313 304 303 300 299 300 300 309 314 329 394 377 353 372 322 309 313 322 313 304 302 302 298 293 294
307 336 338 321 384 393 367 360 344 377 428 406 367 342 337 332 308 315 305 301 300 295 293 296 294 295 306 314 331 398 375 368 375 313 308 319 309 299 300 297 291 289 288
257 334 328 349 393 374 359 352 332 419 416 398 366 339 331 332 313 314 303 298 295 293 292 291 290 293 294 305 315 333 403 373 377 367 311 312 316 297 297 293 289 290 285
331 332 372 405 387 362 350 339 344 408 404 391 365 338 329 323 300 311 297 295 293 289 291 288 287 291 294 295 307 317 339 409 373 384 339 312 315 308 293 299 287 287 287
364 375 425 392 365 350 334 329 340 402 398 389 368 341 326 321 314 311 303 296 290 288 283 287 283 286 291 295 299 308 323 368 410 374 389 352 315 315 305 295 295 288 285
365 403 399 375 358 340 329 319 338 399 391 388 369 344 328 320 315 291 309 307 295 291 287 287 290 283 290 292 297 306 315 331 414 409 370 396 375 320 314 309 297 292 290
401 400 382 362 347 334 324 312 314 299 382 395 375 348 333 322 318 322 315 314 311 308 299 290 292 290 293 295 297 304 313 329 342 427 411 368 393 382 329 315 317 301 294
380 385 371 354 339 329 319 305 305 320 381 381 387 360 336 326 318 308 297 296 310 316 319 322 321 309 295 296 296 305 313 329 335 389 424 411 370 381 386 380 322 316 316
368 381 362 347 333 328 318 305 302 350 337 375 375 375 357 336 322 316 294 302 307 313 318 322 322 298 297 297 298 307 318 329 333 367 415 421 409 388 370 383 381 380 324

GFSGL_2pvu_pres_036.txt.gz
Presure
204 185 193 190 185 184 186 185 203 207 206 216 242 248 256 255 231 239 272 258 276 378 331 449 429 411 391 377 376 377 374 359 354 349 357 360 357 355 358 368 379 379 385
208 211 191 193 188 186 202 211 221 210 219 237 244 257 255 243 242 255 270 282 326 455 446 427 406 387 373 372 376 363 344 348 360 354 365 382 381 426 434 443 444 371 379
211 203 191 197 185 213 207 209 219 223 236 248 220 253 241 235 278 276 288 320 433 410 425 406 386 373 367 374 353 338 347 343 345 372 382 415 407 401 405 419 430 438 449
200 197 191 189 201 204 207 217 216 231 239 256 250 243 248 243 274 271 324 403 408 428 410 388 370 361 375 350 332 342 335 339 360 413 396 383 383 389 403 429 450 448 444
201 190 174 203 206 207 213 218 219 238 249 255 238 244 247 268 271 322 405 364 429 412 389 372 368 358 356 327 339 331 324 348 382 396 371 364 361 376 408 477 476 466 452
190 191 201 206 209 210 215 196 232 249 255 248 250 246 279 272 326 390 381 435 415 393 375 365 358 361 332 335 330 323 345 351 400 368 350 342 344 403 491 481 480 463 455
198 203 204 207 217 213 218 232 243 255 239 257 254 264 269 271 352 388 359 423 398 373 357 372 355 342 333 329 320 322 343 364 380 350 334 332 336 462 456 456 455 451 455
205 206 204 214 216 224 228 234 206 260 239 266 277 281 279 354 387 367 429 405 381 362 366 359 328 331 332 318 318 336 349 394 359 335 328 347 333 458 466 469 455 446 445
203 206 216 218 220 228 235 254 262 261 249 271 271 281 346 335 368 396 418 388 366 352 336 320 331 330 312 319 337 345 348 387 344 326 325 352 345 446 451 449 444 440 439
213 216 219 224 233 242 248 247 239 275 288 283 288 270 351 371 355 430 403 373 354 337 324 332 332 310 333 340 343 348 346 379 334 323 335 340 352 442 442 444 437 436 442
222 224 228 231 242 213 241 256 251 269 281 279 354 347 378 360 381 419 385 362 341 323 332 330 311 327 328 342 363 350 345 369 328 319 328 333 340 327 442 413 423 420 416
226 229 228 240 252 270 246 267 270 269 268 262 327 379 366 350 428 402 371 351 327 332 331 309 322 326 331 338 376 354 344 365 327 317 330 332 327 338 322 424 405 393 393
228 236 247 257 257 247 262 261 277 280 324 331 403 374 357 343 416 382 359 338 324 336 308 322 314 317 326 333 386 364 344 372 331 318 330 327 342 343 337 326 352 408 444
238 247 253 256 259 258 266 288 274 285 290 323 381 363 346 425 399 369 353 328 338 311 321 314 307 304 313 325 347 376 356 376 336 318 331 332 330 333 347 337 335 324 342
248 255 251 251 254 264 284 304 305 327 377 394 370 353 336 415 383 361 344 323 335 311 316 307 304 297 304 315 328 392 368 364 357 321 324 324 323 323 326 331 341 355 341
256 246 256 252 264 277 314 338 341 383 405 373 360 339 422 403 375 354 336 339 310 318 309 305 299 297 299 304 315 327 395 362 375 328 319 317 321 326 326 329 332 334 354
257 250 263 313 284 339 327 353 388 417 384 366 345 330 416 395 368 348 325 335 310 318 303 303 297 293 293 296 301 313 326 394 366 355 319 316 322 330 333 331 332 337 335
255 265 272 270 328 332 356 389 370 394 368 352 336 374 408 387 361 350 325 319 317 312 299 298 293 294 290 289 295 299 310 330 389 373 330 317 319 323 320 317 316 315 314
285 292 327 326 343 363 382 373 386 373 357 339 331 370 401 382 355 347 325 319 313 310 298 293 289 287 288 284 289 294 301 310 358 387 382 321 315 321 311 304 306 299 298
294 320 329 355 375 389 387 407 384 362 346 337 325 364 399 383 357 343 325 323 314 305 300 294 287 281 285 286 283 288 294 305 312 411 388 380 318 320 311 300 302 299 292
336 347 375 375 397 405 399 394 368 351 337 333 319 309 395 387 366 340 331 323 309 311 307 301 289 288 283 286 287 288 291 297 308 318 426 387 356 317 320 304 300 300 292
372 377 403 420 405 394 382 378 359 342 331 326 316 306 382 394 375 348 335 320 321 314 313 310 308 305 296 292 293 283 293 294 304 310 329 438 392 357 318 318 303 300 294
405 397 395 398 392 384 378 372 351 336 326 323 315 305 361 382 386 359 340 329 316 315 317 315 316 317 316 318 321 317 293 295 302 308 323 334 445 400 374 321 318 304 299
388 388 391 381 373 372 364 364 348 336 326 322 313 302 334 337 376 379 351 328 320 315 301 296 297 302 308 316 324 320 295 298 299 306 322 327 347 446 410 392 326 319 309
379 375 370 367 367 369 366 365 348 338 328 321 315 304 296 336 332 371 368 361 332 320 312 307 303 306 312 320 319 299 298 298 297 307 323 327 336 416 441 411 393 341 322
371 358 365 372 375 374 374 366 351 339 332 324 317 310 297 302 333 326 369 360 326 323 325 323 310 307 311 315 312 304 300 297 300 312 327 325 336 388 429 433 411 385 392

GFSGL_2pvu_pres_039.txt.gz
Presure
201 203 209 224 225 232 217 204 194 195 193 183 201 211 216 216 232 253 259 267 242 246 272 280 350 392 407 430 414 392 380 369 390 357 340 347 353 355 356 359 383 397 248
200 201 205 224 224 220 200 202 200 199 199 208 208 217 231 246 248 260 230 279 283 290 288 354 400 385 426 412 389 374 363 374 358 337 341 344 340 360 389 428 422 423 424
200 195 214 222 232 200 198 197 195 207 207 222 221 235 246 239 259 258 248 276 276 274 355 345 381 429 411 386 370 370 365 352 331 349 334 335 361 417 405 387 386 388 394
196 200 221 226 205 202 198 194 200 206 217 231 233 239 252 270 241 242 284 287 283 356 398 377 435 414 388 369 375 359 352 329 344 336 329 357 413 387 369 362 356 364 375
201 209 228 215 199 200 200 207 212 225 234 230 237 221 255 240 263 281 289 271 358 344 378 384 420 392 369 361 361 336 333 341 329 329 346 370 383 358 348 347 344 347 483
207 225 233 204 199 201 202 209 222 235 230 239 211 252 251 251 279 282 339 356 307 381 366 426 399 371 352 338 324 336 337 319 329 354 359 398 351 343 339 360 350 337 468
226 226 197 201 208 207 211 222 230 234 239 211 257 253 255 273 275 275 344 338 391 370 429 410 372 353 334 327 339 326 326 346 350 354 357 359 340 335 341 362 370 467 473
215 198 200 208 204 209 224 226 236 239 246 257 251 255 270 294 282 331 330 401 374 354 420 380 355 335 331 336 315 336 336 352 366 358 387 344 332 329 346 351 444 456 451
195 201 208 206 209 231 234 236 242 248 259 248 260 263 277 278 331 339 412 381 358 423 396 363 339 334 334 318 334 336 338 359 364 353 370 336 326 332 341 340 418 447 439
199 206 206 213 225 236 241 242 250 261 250 256 265 284 286 295 328 420 391 365 348 410 373 347 327 330 311 325 324 327 340 385 365 354 351 330 324 333 334 343 400 417 433
201 205 216 228 237 239 245 249 261 245 259 262 283 277 324 358 402 399 373 350 422 386 359 334 332 312 323 316 311 321 337 389 366 363 345 324 326 329 349 342 347 401 400
211 222 228 238 239 243 253 253 249 259 269 278 281 322 368 388 412 379 353 342 405 368 347 326 324 313 315 310 308 315 326 378 371 366 346 322 325 330 343 345 329 381 399
227 235 239 243 251 257 258 257 256 270 272 281 330 359 388 380 390 361 339 420 387 360 338 335 311 314 309 306 302 304 318 332 384 368 349 321 326 325 328 337 343 327 381
240 240 240 249 259 256 263 258 262 267 284 334 344 382 380 404 372 345 332 406 376 355 328 339 310 307 307 301 296 300 303 317 366 373 381 324 324 322 320 324 333 342 329
241 251 253 262 252 262 256 272 280 331 337 353 376 403 410 380 356 335 408 395 367 351 326 323 312 304 302 298 294 292 295 302 317 392 378 333 321 320 317 321 323 338 342
248 256 254 260 251 254 270 318 343 347 358 375 424 415 390 364 347 326 412 389 362 345 330 317 313 301 297 293 293 289 289 294 303 319 382 366 322 316 321 333 333 331 343
264 251 255 258 265 277 336 351 363 364 377 386 408 395 370 351 340 322 403 385 359 341 332 317 309 301 293 289 289 286 283 289 295 308 405 380 331 316 320 330 331 333 331
256 260 261 269 296 349 364 371 380 406 397 410 398 378 356 340 335 319 400 384 358 342 332 320 308 304 295 290 287 284 286 285 290 296 313 400 378 319 318 321 323 324 328
258 262 267 341 359 368 376 371 390 404 394 391 382 367 348 334 329 314 386 387 367 349 331 319 313 307 304 297 291 289 284 289 284 293 302 321 399 334 316 316 312 315 314
274 302 375 378 386 375 380 405 390 394 390 379 369 360 341 328 323 313 371 392 375 348 337 325 316 311 310 307 301 294 290 290 292 292 293 308 402 402 322 317 309 302 305
388 387 384 400 410 410 398 378 380 385 374 369 372 354 336 324 320 314 302 389 379 358 340 325 317 315 309 312 309 309 313 315 319 313 294 300 314 434 406 321 314 303 296
376 408 407 400 393 389 378 376 365 362 367 362 362 350 335 323 320 315 298 335 387 368 347 331 320 311 310 308 304 304 304 307 318 317 293 295 307 321 429 417 322 313 300
409 399 391 385 381 376 370 367 355 353 356 360 362 350 337 325 320 315 305 294 330 377 370 345 325 318 312 303 298 300 305 312 321 322 292 297 302 311 326 422 436 325 314
384 391 410 410 397 387 381 377 389 384 376 373 366 352 338 331 322 317 307 293 299 327 366 367 360 334 321 314 309 298 304 314 316 308 296 300 298 308 326 327 389 457 332
406 401 391 387 387 380 364 349 344 344 354 364 370 359 348 334 328 320 317 301 294 301 324 324 361 335 319 322 323 309 306 310 312 306 300 298 299 311 329 325 334 403 459
377 360 351 345 342 340 340 337 330 325 323 322 323 342 354 345 336 328 320 315 298 298 302 321 319 331 337 324 314 309 310 310 314 308 296 299 309 321 327 320 333 375 441

GFSGL_2pvu_pres_045.txt.gz
Presure
194 202 203 209 198 192 191 187 184 194 196 203 209 208 240 206 210 196 213 213 229 254 272 256 255 260 274 334 341 344 413 404 385 414 405 387 380 393 374 360 353 345 346
197 201 201 189 193 195 186 182 191 196 199 195 210 218 221 207 204 213 214 250 245 271 266 252 265 270 292 332 351 428 404 383 405 406 377 359 349 347 353 351 351 349 346
201 202 196 193 192 193 190 193 191 194 197 213 234 224 207 208 214 215 250 249 268 263 251 267 270 278 331 348 397 411 384 382 399 371 348 351 348 343 341 347 352 356 359
205 207 196 190 192 193 192 194 193 208 213 230 222 209 212 215 216 251 247 268 258 261 271 278 293 315 346 404 417 388 365 401 367 348 346 339 346 344 349 357 362 380 376
210 200 190 191 192 194 187 194 212 217 225 237 215 216 211 219 251 250 271 261 258 266 277 279 318 353 355 431 396 369 396 373 350 342 336 333 334 351 372 395 388 374 382
192 187 185 196 194 193 205 207 216 220 239 215 218 213 222 251 252 268 266 270 265 266 272 282 333 363 376 410 379 354 384 352 340 329 325 324 332 408 397 381 367 371 350
182 193 199 197 195 205 205 216 217 230 214 220 217 222 249 262 269 257 269 270 265 280 284 352 357 352 420 390 363 395 366 349 334 325 319 319 332 408 379 371 372 347 338
194 202 200 198 204 205 218 218 239 216 217 222 228 252 260 273 264 247 256 275 273 291 338 353 371 404 402 367 348 382 354 338 324 318 315 312 332 402 377 385 347 335 342
194 202 200 204 204 214 214 245 216 216 228 242 252 257 260 256 268 274 270 277 307 352 352 385 383 411 380 352 396 365 346 331 321 312 309 310 321 397 387 363 341 340 339
203 205 205 211 217 230 234 211 220 230 247 255 262 264 263 264 259 280 315 345 354 365 375 426 415 390 360 344 389 356 341 325 318 308 307 308 311 334 393 361 336 337 335
207 203 216 218 243 219 211 228 243 251 259 261 274 274 252 269 267 321 354 367 374 387 377 419 395 369 348 339 381 349 336 322 315 306 306 301 306 319 394 371 337 334 331
211 217 234 237 208 219 236 247 253 256 268 253 267 266 278 287 348 382 373 395 408 385 403 398 380 355 338 352 372 343 335 320 313 304 302 299 299 308 330 378 338 334 332
232 248 214 217 228 240 251 254 270 269 269 269 265 275 365 388 384 409 381 380 416 390 394 383 362 344 332 387 368 341 337 321 311 305 300 299 296 306 316 391 344 331 336
212 215 230 242 249 252 254 272 251 267 267 268 287 408 418 399 378 373 401 396 390 393 389 372 349 336 327 382 364 340 337 320 314 305 303 296 297 296 307 356 353 329 339
226 233 241 256 253 266 277 257 278 265 279 416 403 386 379 389 403 396 383 386 379 377 373 359 340 331 321 382 362 340 337 321 315 306 304 301 296 297 303 316 360 329 337
233 247 257 257 268 273 267 277 276 278 392 289 375 389 399 394 384 378 373 372 372 366 368 348 331 327 317 383 364 343 334 324 314 314 306 304 301 294 302 308 372 332 331
239 257 268 280 259 273 272 285 393 374 365 361 388 399 394 388 391 382 371 368 353 362 366 342 329 326 314 385 368 343 335 324 319 314 314 313 312 315 323 304 370 337 328
260 266 275 261 270 273 342 388 374 369 392 400 385 382 389 403 404 385 370 365 345 350 362 343 329 325 310 345 372 352 330 328 319 315 311 315 318 322 324 301 312 349 327
275 282 262 275 268 370 391 375 385 405 413 394 390 391 386 381 396 384 373 365 362 351 361 343 330 322 314 304 380 354 343 322 321 321 315 312 311 308 322 313 304 403 333
280 274 275 278 410 393 375 384 407 401 389 383 389 379 361 349 343 382 379 370 390 363 364 344 332 321 320 306 313 372 348 335 320 316 315 302 302 313 324 314 298 313 355
278 277 281 414 396 381 382 401 392 387 374 363 352 346 342 343 342 340 338 337 331 322 370 350 334 325 317 314 302 315 371 350 331 320 316 307 301 307 316 320 302 300 346
282 305 413 401 390 386 403 389 378 378 348 335 351 342 342 341 337 319 317 322 322 321 321 358 344 333 326 319 313 300 309 337 362 336 323 316 313 304 313 316 297 299 302
338 415 409 397 397 400 388 382 365 405 389 315 416 396 352 331 329 329 330 334 334 332 331 325 350 339 331 324 320 314 301 301 319 356 341 323 321 317 306 311 312 305 297
419 413 403 405 398 381 408 431 416 406 313 394 388 381 375 370 365 359 355 351 347 342 337 334 326 324 342 335 328 321 309 303 299 317 322 343 320 322 312 309 311 308 304
415 408 401 389 387 406 404 401 400 397 387 370 360 372 374 365 360 350 347 345 336 327 327 329 333 331 326 323 330 330 326 314 312 303 315 319 331 323 313 310 311 315 294
407 398 414 430 426 413 399 387 383 379 372 373 372 364 348 341 337 336 335 333 325 327 330 331 330 330 329 330 327 321 319 317 313 312 307 314 317 327 313 309 312 319 294

GFSGL_2pvu_pres_048.txt.gz
Presure
191 192 191 192 195 206 206 205 208 210 205 196 195 198 200 195 209 221 223 239 213 218 224 248 265 264 268 263 256 280 304 342 356 359 430 388 420 404 376 357 353 354 355
190 191 193 199 205 207 213 225 205 199 188 194 201 200 198 212 223 221 250 213 217 228 260 263 260 257 250 273 278 310 321 352 357 382 393 389 399 369 358 352 348 351 354
196 202 199 204 211 215 203 198 185 193 195 203 204 203 211 219 231 240 215 221 259 267 259 268 266 267 263 274 300 328 349 385 434 405 372 404 368 357 344 340 338 340 352
197 203 212 206 197 196 196 198 200 202 205 206 205 214 224 248 223 215 238 258 258 265 272 266 268 264 283 314 320 361 383 417 409 377 387 374 356 345 338 331 330 339 412
211 202 200 207 202 187 195 205 205 198 209 206 223 236 239 216 220 251 253 256 268 264 267 260 265 284 349 327 357 386 376 411 383 359 388 357 344 334 328 323 324 414 399
197 196 201 192 193 205 207 205 206 208 218 232 248 217 214 240 251 256 256 268 265 260 255 275 292 347 343 370 423 426 415 392 362 346 367 345 330 323 316 314 325 391 369
195 198 195 203 200 205 204 206 214 222 247 218 214 235 253 256 253 266 274 256 251 265 269 343 356 383 395 418 389 413 392 374 351 376 353 337 322 316 307 309 320 395 400
197 189 201 200 207 203 212 213 226 242 210 221 239 251 244 253 263 258 266 275 275 290 361 389 394 419 379 389 405 386 376 357 343 373 348 331 320 312 306 306 313 404 375
198 202 200 205 204 213 214 226 211 209 229 237 247 258 266 260 259 266 283 304 333 397 419 408 384 366 415 405 392 376 358 346 369 364 343 327 317 309 308 302 307 411 363
191 206 199 208 208 213 223 215 210 230 236 240 259 275 270 251 264 270 390 412 419 399 385 372 398 386 382 390 379 360 345 336 381 356 339 325 316 308 306 297 304 329 359
205 195 206 207 214 224 221 217 235 237 244 265 274 264 267 266 271 342 413 396 384 381 404 396 393 394 392 382 366 348 336 333 374 348 337 324 316 309 305 300 300 318 376
195 210 209 214 217 216 232 235 239 253 265 273 281 269 263 278 388 389 378 367 374 401 388 377 381 379 383 371 354 338 330 380 365 342 334 323 312 309 305 298 298 310 376
210 207 212 213 224 233 238 242 258 267 276 263 270 275 285 394 384 371 370 403 401 392 377 369 365 370 373 363 342 332 325 374 363 341 333 321 311 306 305 301 297 307 376
205 214 214 232 233 238 245 259 273 281 268 268 278 302 408 386 371 390 407 398 386 395 393 370 365 357 370 356 336 329 321 376 360 341 335 321 313 310 307 305 300 306 373
218 218 233 230 239 244 262 265 282 263 275 279 328 417 395 377 392 400 391 386 393 400 390 367 360 349 370 350 333 328 317 379 360 341 334 321 312 313 314 314 314 337 332
226 230 232 238 246 258 267 280 274 264 278 333 401 401 384 388 397 384 373 391 381 399 388 367 357 346 364 347 331 328 316 384 363 343 334 324 316 311 315 320 329 341 322
231 233 233 247 251 262 274 287 267 272 326 414 401 385 382 394 378 372 369 387 361 349 382 372 362 353 360 345 329 328 316 335 368 344 333 326 318 313 315 321 321 335 311
235 246 246 250 263 270 291 289 282 296 425 412 394 386 392 387 377 367 355 344 344 343 337 371 371 365 361 345 332 326 318 306 369 350 335 322 322 319 312 303 318 323 305
245 248 254 258 270 296 288 283 294 427 417 407 397 398 383 375 367 350 329 335 338 341 343 338 334 347 366 348 334 324 321 308 327 357 343 327 318 317 307 302 321 325 300
249 258 255 271 291 280 286 302 433 420 407 401 398 383 373 416 405 425 313 364 345 336 333 315 322 324 318 352 336 331 320 317 303 329 354 337 324 315 305 295 308 318 303
258 260 272 280 277 292 398 431 418 403 395 391 382 386 434 415 396 402 399 385 359 340 325 323 323 324 326 320 346 330 328 320 314 299 317 361 339 324 316 312 305 320 307
273 269 276 283 299 443 431 411 405 411 420 422 410 402 402 401 390 386 387 383 376 354 343 338 336 334 331 327 322 343 330 328 318 315 299 310 324 348 335 323 314 308 316
275 275 290 304 440 421 410 526 512 490 467 445 424 404 383 383 387 377 371 369 365 363 358 354 349 342 338 333 327 322 339 335 328 319 314 301 308 319 324 320 322 312 309
275 295 323 432 416 450 503 375 437 457 472 461 445 424 396 369 370 363 356 351 362 353 349 347 346 345 342 336 331 330 323 325 333 328 321 316 305 308 315 325 322 318 307
292 364 428 417 422 434 371 367 360 357 356 371 439 448 439 407 372 359 366 364 349 337 337 337 334 331 323 321 322 324 328 327 322 322 315 325 321 310 308 314 322 322 310
362 422 410 434 470 376 363 365 370 368 361 349 344 349 393 429 428 428 429 426 425 386 354 343 337 334 334 335 340 337 328 322 322 325 322 320 320 313 311 310 314 324 314

GFSGL_2pvu_pres_051.txt.gz
Presure
193 191 189 192 194 190 193 196 210 208 200 195 196 201 194 204 211 205 216 241 242 218 216 240 258 254 257 259 259 269 292 294 313 337 363 378 448 449 413 387 418 384 367
186 185 194 191 191 199 215 207 194 193 197 197 191 198 204 204 217 222 245 217 212 223 239 255 269 269 260 257 268 278 321 337 363 379 443 434 390 421 389 388 380 363 355
194 192 195 208 213 209 195 193 188 184 192 196 201 208 206 216 222 228 209 219 227 246 267 280 274 266 260 264 296 333 360 392 443 432 391 411 414 389 364 383 357 349 340
193 202 208 207 195 185 184 194 198 200 197 202 205 211 213 220 226 215 224 239 263 266 281 275 264 260 271 297 370 451 437 421 394 391 422 410 389 368 400 360 344 337 333
202 207 201 185 190 196 200 196 197 204 203 206 206 211 217 214 219 236 242 270 274 277 268 265 271 267 311 431 421 397 383 384 413 406 399 386 365 351 376 350 341 327 322
204 185 184 191 199 202 196 197 195 202 195 212 208 212 217 218 242 247 267 281 274 264 260 283 310 324 418 409 379 377 413 409 414 397 384 365 353 385 362 341 330 320 314
192 183 194 186 200 190 205 196 201 194 210 208 209 217 226 240 242 255 279 264 252 260 286 327 380 400 380 368 387 408 399 396 390 384 366 351 342 374 350 334 326 319 312
187 199 197 197 196 204 202 204 194 211 206 217 225 226 240 241 252 265 279 264 257 276 295 347 397 378 379 406 398 384 385 388 390 373 353 341 337 363 342 331 322 318 313
194 197 200 199 204 203 198 196 205 206 218 232 225 237 240 249 257 274 283 265 278 288 345 398 383 406 406 399 382 376 383 387 374 358 342 336 377 357 337 325 319 313 310
197 203 203 197 206 195 199 204 207 216 217 227 236 240 245 253 270 291 272 275 283 331 400 386 396 402 389 390 371 373 371 375 363 347 339 338 371 349 335 324 314 311 307
203 204 207 206 193 204 203 211 217 218 229 234 240 242 250 263 284 275 273 289 338 407 389 380 396 385 394 405 376 370 364 369 352 337 333 379 367 348 337 328 314 308 307
209 211 204 192 205 206 214 216 224 231 231 240 241 248 254 268 273 275 298 343 412 399 379 390 384 390 400 400 371 366 363 363 340 335 329 377 363 346 338 326 314 310 308
206 205 191 209 215 214 217 226 230 233 241 242 251 253 263 273 284 306 348 420 406 388 387 381 372 389 376 404 368 360 363 357 336 333 321 374 359 339 338 326 317 311 314
206 192 214 211 212 218 225 232 234 246 245 250 258 265 276 298 313 359 424 413 393 388 390 372 364 383 351 389 368 354 361 352 335 332 320 377 358 339 336 322 313 316 320
213 213 210 222 217 231 233 236 246 250 246 258 266 275 293 328 400 425 416 406 389 390 382 365 357 344 344 348 374 358 361 352 334 332 320 380 358 340 333 323 315 319 320
207 213 224 218 242 232 244 249 248 246 252 263 274 287 338 435 422 412 401 403 395 379 373 357 336 329 338 340 347 360 365 352 335 331 319 381 360 339 333 322 317 317 315
215 226 226 244 231 246 251 253 248 251 256 263 281 385 430 418 405 395 389 388 376 368 371 351 335 307 331 339 339 335 374 356 336 330 320 307 362 343 327 327 321 324 304
228 231 247 230 248 253 259 245 263 268 279 289 450 432 411 399 401 402 395 385 377 390 407 416 400 303 341 334 331 324 322 355 337 329 321 313 346 349 327 320 320 304 305
245 242 234 248 259 263 247 265 269 275 287 378 438 421 483 382 440 449 422 405 392 410 392 402 401 367 346 333 322 319 328 327 340 330 322 318 304 361 342 324 314 304 301
239 237 250 261 265 252 270 270 274 288 304 429 419 420 378 367 482 457 428 402 393 399 384 386 400 372 350 336 326 321 325 326 345 327 326 319 314 301 361 337 320 314 309
240 251 263 268 255 273 274 282 289 371 429 406 452 380 368 371 359 458 422 394 383 384 377 373 376 382 355 340 333 329 331 329 322 337 325 325 318 312 302 344 349 326 317
255 266 268 259 277 278 284 292 371 429 440 468 387 371 372 377 374 349 436 405 381 369 374 361 357 360 367 355 345 338 335 332 329 322 340 327 323 317 310 303 323 322 352
270 273 262 280 282 290 297 384 427 482 460 398 374 370 376 368 367 366 350 390 402 370 365 353 346 350 347 349 351 349 342 338 333 328 321 342 331 325 315 308 307 319 327
272 264 284 287 297 308 426 411 451 443 404 379 368 372 371 356 347 362 367 349 387 404 366 349 356 348 342 340 334 337 337 327 325 327 328 323 324 327 327 323 313 309 319
282 287 294 302 311 429 411 445 433 412 384 371 363 358 355 359 348 357 375 363 348 340 426 388 354 356 344 336 336 328 328 325 321 323 321 324 326 322 320 323 325 319 311
293 302 305 323 423 407 406 436 418 402 382 368 357 346 337 379 358 469 477 441 356 343 339 415 417 415 388 359 344 336 330 330 331 335 337 325 323 322 323 322 319 317 315

GFSGL_2pvu_pres_054.txt.gz
Presure
221 208 206 198 197 196 193 195 191 194 210 205 193 194 196 195 194 190 206 209 214 216 225 233 229 253 257 269 293 287 276 267 292 328 421 420 396 397 403 398 412 435 418
203 199 198 195 193 192 195 190 204 207 192 189 200 193 191 196 188 211 204 212 218 221 229 228 249 252 266 291 295 278 279 286 315 432 397 379 378 405 402 437 414 406 386
210 198 194 205 202 192 201 210 205 183 184 194 184 185 199 197 214 200 207 210 218 221 228 247 257 254 271 291 272 274 298 319 424 394 395 407 405 430 425 410 397 379 365
193 200 197 194 201 202 208 207 185 185 191 194 190 202 203 210 198 206 209 219 218 230 244 250 252 262 275 282 285 305 325 419 395 424 413 406 401 395 394 390 368 357 393
195 193 200 203 205 206 202 187 185 193 192 191 204 204 206 195 206 210 217 222 233 236 247 258 257 269 283 301 308 333 416 398 425 418 396 384 393 399 388 373 358 345 371
201 203 196 202 196 195 185 184 192 188 185 202 206 205 194 206 214 218 226 235 235 248 249 260 266 276 299 314 341 413 399 412 403 393 379 388 396 383 366 354 345 384 357
197 199 196 195 185 189 190 192 193 199 201 213 202 196 211 212 219 223 237 229 248 253 253 261 272 297 317 347 411 401 397 393 406 387 378 381 379 366 352 343 341 373 355
194 197 194 193 187 193 195 197 206 204 211 202 199 212 209 222 225 238 229 246 253 253 252 269 289 321 351 414 402 387 391 390 414 387 375 378 367 351 340 335 379 363 351
194 192 195 202 197 195 204 200 209 214 202 202 213 210 223 225 239 229 249 250 252 255 267 281 321 386 416 405 388 392 375 392 403 380 369 376 356 340 335 353 370 354 344
199 201 196 194 195 205 195 207 214 212 203 209 213 225 224 238 227 246 248 251 263 264 281 307 385 417 411 393 385 386 367 374 400 376 362 371 346 338 330 380 362 344 336
199 202 196 205 211 202 203 214 210 206 197 215 227 224 236 229 249 249 252 255 271 282 291 424 419 415 402 386 388 379 370 362 390 374 355 365 342 337 325 378 360 338 334
201 203 213 211 203 197 214 205 208 202 218 227 233 243 225 244 262 256 257 273 279 291 429 425 414 398 389 389 385 370 361 348 369 372 354 360 339 335 324 377 357 340 339
212 212 210 194 208 213 204 211 225 221 230 236 246 227 235 263 259 256 276 280 289 399 426 410 390 383 384 389 375 363 336 336 346 370 360 359 339 335 324 372 354 341 334
211 214 211 203 211 207 215 224 226 234 243 243 232 240 268 266 256 275 278 293 382 425 405 400 392 382 385 376 370 360 334 321 345 365 360 359 337 333 322 368 349 339 333
205 209 212 211 213 219 227 231 237 238 230 245 241 270 274 267 279 286 297 384 416 408 411 373 389 401 392 379 391 387 352 305 341 337 367 357 335 332 321 368 343 336 326
209 213 212 224 229 232 238 244 233 229 246 240 267 271 268 283 294 305 392 424 446 386 372 369 441 410 394 386 409 421 374 324 339 332 320 356 333 331 321 370 342 329 331
214 222 228 232 238 243 229 231 244 242 245 259 267 270 285 300 309 389 430 484 396 373 371 364 438 407 395 394 396 408 371 348 336 323 321 355 335 330 324 314 349 330 324
229 229 235 238 215 236 236 248 250 257 261 268 276 289 304 316 434 501 473 409 376 368 387 366 429 406 389 386 386 398 368 350 335 322 322 334 336 329 325 311 355 340 320
230 235 224 230 237 220 254 248 262 260 274 288 303 313 320 432 472 458 414 381 366 376 365 363 421 394 382 375 377 392 367 350 336 326 320 323 334 329 326 318 304 352 333
240 221 233 236 241 252 253 263 277 271 289 309 313 323 429 486 451 410 383 368 364 361 354 373 381 391 378 366 370 379 367 350 338 329 323 328 340 329 326 323 312 306 354
229 233 238 251 248 256 268 283 272 295 311 307 334 422 419 442 419 393 372 365 364 355 346 351 351 395 376 370 360 362 375 353 343 336 331 328 325 336 326 326 319 308 311
235 246 249 256 264 270 279 274 302 308 308 368 419 417 433 424 405 383 372 361 347 343 355 341 372 338 379 368 357 349 353 361 353 344 335 331 329 323 336 328 322 320 305
249 258 257 262 268 268 294 304 305 317 355 422 411 418 429 408 397 379 367 361 354 339 374 348 352 354 365 372 355 346 346 344 347 349 344 337 329 327 321 336 336 326 321
262 251 261 273 294 301 305 305 318 388 418 408 409 410 395 377 394 387 376 366 363 354 373 360 421 367 339 396 360 350 346 344 336 334 339 331 324 325 328 323 326 332 327
258 267 294 300 305 304 308 318 414 417 403 403 397 414 398 384 375 394 391 386 392 472 494 480 427 387 353 355 399 359 354 344 339 334 327 324 318 320 321 322 327 325 323
297 302 303 305 301 307 325 351 396 404 398 391 384 376 408 397 378 369 417 395 447 528 496 477 446 400 364 336 366 412 381 356 347 339 334 327 328 325 328 330 325 324 326

GFSGL_2pvu_pres_057.txt.gz
Presure
216 204 208 195 201 212 207 213 194 198 207 198 195 202 212 208 203 193 195 193 192 203 210 209 207 217 229 228 242 237 258 262 272 279 292 332 432 422 419 433 424 410 407
204 211 201 208 209 204 207 196 201 196 197 200 204 206 201 196 192 194 195 193 206 216 206 207 215 227 225 246 240 255 261 267 281 289 331 434 416 405 412 406 400 392 400
211 204 211 203 211 209 193 197 192 196 199 198 200 195 200 197 198 195 190 208 214 210 203 216 227 223 247 239 253 257 266 276 279 324 435 419 401 401 409 396 388 395 402
233 224 221 212 199 197 192 194 196 194 193 193 197 191 197 195 194 206 205 213 215 205 217 228 233 246 235 246 260 268 268 281 304 435 425 400 394 400 408 388 381 394 384
236 214 208 196 194 195 194 194 194 197 198 196 192 199 194 186 204 203 217 214 205 220 226 236 249 237 241 259 270 263 280 300 423 430 408 396 383 413 396 381 391 379 366
211 206 199 195 195 192 199 195 199 196 195 196 198 180 199 205 200 216 209 207 226 219 239 240 243 239 248 272 268 280 297 358 429 418 395 390 379 411 385 378 381 362 352
204 202 199 194 198 193 199 199 198 197 201 197 179 202 209 201 219 210 217 228 221 240 231 240 241 244 273 275 279 297 317 429 419 406 391 381 374 399 380 377 374 354 349
200 198 193 195 198 199 195 197 202 195 199 196 209 206 210 215 210 217 226 231 239 229 237 243 244 274 277 281 297 310 432 417 408 390 392 372 364 393 373 380 362 348 343
202 202 202 197 194 199 196 203 199 201 207 207 211 215 210 211 221 226 236 241 229 232 242 246 273 276 290 300 312 392 411 392 390 387 386 368 351 386 368 377 354 344 336
199 200 198 197 201 199 202 203 203 210 208 214 212 214 208 225 232 239 245 229 235 245 249 263 274 291 301 315 385 415 396 392 388 385 382 364 339 341 364 372 349 340 331
204 204 204 205 199 204 205 211 214 211 207 212 213 217 227 237 237 229 229 244 248 255 262 278 292 302 322 431 415 405 391 366 378 386 372 360 332 342 360 368 346 336 331
212 213 210 205 208 210 214 223 221 209 212 215 226 226 235 222 229 231 239 250 257 268 281 294 308 316 426 418 405 385 363 361 408 382 368 356 333 340 359 365 344 336 333
205 209 213 214 215 222 215 210 208 215 223 226 227 235 220 227 233 239 254 258 274 282 295 314 327 427 419 407 408 367 364 356 408 376 366 359 336 333 360 362 342 335 343
208 212 204 216 216 206 205 215 223 226 226 231 239 228 226 236 243 255 265 286 276 293 312 376 429 479 510 410 373 370 369 426 395 374 414 376 338 299 359 356 341 335 342
214 216 218 209 212 214 223 226 225 231 239 238 227 230 246 257 260 268 281 289 305 316 443 457 483 449 398 371 366 375 397 412 387 388 408 366 339 339 332 351 334 332 338
221 219 215 220 231 219 223 227 238 237 231 230 238 252 262 261 269 291 302 310 319 427 453 464 434 396 373 373 368 366 421 399 389 384 393 357 338 338 327 343 331 329 322
216 221 226 233 215 227 235 235 228 226 230 238 250 260 257 278 293 306 317 319 435 443 453 424 396 375 364 364 351 360 405 390 378 386 380 353 337 335 322 343 328 327 320
227 234 226 223 229 233 232 228 227 232 241 249 269 257 283 296 311 311 331 435 419 431 429 402 379 368 360 355 342 352 397 382 372 391 372 352 337 332 320 333 329 327 323
227 228 236 228 222 227 234 229 239 246 260 269 264 294 304 306 305 334 429 417 416 421 409 392 370 360 353 350 341 353 394 379 371 385 367 350 337 331 322 325 330 326 326
236 230 228 227 227 236 235 243 251 266 265 274 291 309 311 311 335 422 415 402 408 398 401 384 370 362 352 334 352 350 339 376 362 370 367 350 336 329 324 329 331 327 325
227 228 228 238 242 240 247 253 269 268 276 285 310 311 319 337 433 413 404 393 408 395 382 379 376 365 358 343 361 338 341 377 362 356 367 351 337 332 330 329 328 330 327
238 245 248 242 244 252 255 269 275 273 283 305 315 315 342 415 422 411 394 391 372 393 382 368 392 385 364 358 369 345 352 368 364 351 350 355 344 337 334 329 325 331 330
245 240 242 250 253 261 269 278 271 294 311 315 316 348 416 406 409 396 384 399 377 363 409 375 374 383 373 383 399 354 364 330 367 349 344 344 347 342 337 334 328 321 328
243 251 250 254 267 274 277 275 310 315 311 318 369 408 397 403 399 383 371 396 373 447 430 414 377 355 437 469 435 419 373 337 372 353 344 338 332 337 341 335 330 329 322
250 250 264 271 272 270 299 312 310 316 322 371 404 393 389 389 392 381 414 393 408 373 355 381 446 438 487 477 434 417 384 344 364 361 348 340 332 327 330 321 318 319 322
263 269 271 265 261 306 309 313 319 329 375 405 388 384 388 385 392 406 401 393 402 359 402 468 442 529 485 476 432 414 389 348 333 385 356 348 335 334 327 325 319 319 320

GFSGL_2pvu_pres_060.txt.gz
Presure
206 207 207 205 209 204 207 204 210 196 211 212 205 201 200 207 204 192 202 204 198 204 209 196 208 216 206 222 208 227 235 244 241 239 246 256 282 285 302 330 445 431 412
206 210 213 206 203 204 217 198 209 205 218 198 202 198 195 194 208 206 201 195 205 201 197 206 213 208 211 207 226 231 242 256 237 251 256 266 287 305 326 444 429 417 405
219 213 207 203 200 203 203 213 215 212 200 192 196 199 195 198 196 194 199 206 199 200 206 210 209 209 210 228 235 244 244 237 253 260 270 285 303 320 359 429 417 406 400
204 204 208 205 207 227 232 205 218 203 196 198 193 190 186 194 194 203 206 202 200 207 205 212 211 211 227 237 244 232 243 251 260 271 284 297 317 328 425 407 412 395 391
204 207 207 230 240 229 210 203 201 197 194 193 189 193 193 193 203 205 204 201 209 202 214 212 214 227 236 237 235 241 250 261 269 286 291 311 322 423 404 399 405 386 367
202 206 228 209 205 205 203 199 194 195 192 191 193 193 202 204 203 207 193 207 206 215 211 219 228 234 219 232 240 248 258 264 285 290 311 317 426 408 396 390 394 378 355
201 199 197 200 202 202 199 195 193 192 197 196 200 203 203 203 203 206 197 213 215 210 223 228 234 226 231 242 250 261 263 279 292 310 319 420 411 395 378 373 387 373 348
203 204 199 197 197 197 197 198 199 202 203 203 203 204 205 210 207 212 214 213 215 225 227 236 228 231 243 255 263 263 283 302 313 323 426 403 398 383 359 373 379 366 343
206 205 202 203 205 205 206 205 206 206 207 207 205 206 206 212 216 206 212 229 226 231 236 224 234 242 256 261 262 296 307 313 325 424 409 402 412 362 354 402 373 362 338
208 209 211 208 208 205 202 205 208 205 203 206 208 213 214 211 212 220 227 228 239 228 221 235 241 258 260 272 304 313 319 333 419 416 422 433 368 362 352 396 373 358 336
204 202 203 202 198 203 206 200 203 203 207 209 198 215 215 223 227 224 235 240 227 228 237 248 261 266 292 307 316 315 427 417 451 462 437 374 363 366 382 384 367 350 331
214 212 211 213 212 206 203 209 208 206 211 207 214 219 232 229 223 236 231 227 230 241 251 267 264 298 309 315 328 433 438 479 453 399 366 363 371 365 400 375 368 344 331
218 221 219 212 214 210 210 209 213 212 213 222 222 229 230 227 236 224 227 230 239 244 265 274 293 309 314 369 434 451 455 425 386 367 365 368 366 406 385 385 377 338 331
215 212 211 221 221 221 213 214 218 225 216 225 237 226 232 227 220 234 238 245 243 271 274 283 304 314 447 430 435 439 411 381 364 362 357 394 404 391 379 397 361 333 332
220 217 222 222 229 230 227 228 237 240 236 233 223 237 227 219 246 240 249 257 280 276 302 315 316 446 424 419 423 414 389 365 366 351 346 408 392 384 393 378 349 331 331
218 212 218 221 219 224 226 238 237 243 242 242 234 227 241 249 242 256 264 285 284 306 317 322 447 430 410 410 396 397 380 361 359 345 343 394 382 378 393 365 341 334 329
210 216 217 215 224 229 225 225 240 243 238 242 252 252 243 250 260 267 281 273 314 318 329 442 430 414 401 407 394 391 368 359 346 340 343 389 376 376 383 357 336 332 322
229 233 234 228 233 224 234 245 245 246 247 251 248 245 256 258 279 273 283 313 312 336 431 427 411 403 384 383 395 383 368 359 341 332 344 385 371 380 374 350 332 328 319
240 224 241 249 237 243 248 241 242 250 250 249 246 253 264 277 271 271 307 319 330 425 415 417 402 383 390 372 379 368 374 360 349 333 344 352 367 377 366 346 331 326 325
263 263 228 237 240 242 246 252 250 249 254 249 259 265 280 265 272 296 314 322 376 416 405 400 389 371 388 377 370 379 357 371 356 337 349 335 363 364 363 345 331 326 326
220 247 232 245 245 252 252 249 253 253 251 261 264 280 268 272 296 319 323 353 412 395 400 398 385 405 388 376 412 387 365 351 368 345 352 335 363 354 363 347 332 328 326
250 245 249 252 253 250 256 257 253 256 264 271 285 273 282 305 320 321 361 412 394 400 395 414 414 402 386 423 392 400 395 413 366 368 352 338 363 346 353 351 334 330 328
243 251 253 253 256 258 250 255 263 279 283 280 278 294 324 317 324 380 411 391 384 399 459 429 408 393 400 365 342 383 359 347 378 372 357 343 349 347 340 348 343 333 331
254 254 256 254 252 253 259 273 262 271 276 287 307 315 311 332 380 407 392 377 395 468 453 425 398 384 390 370 446 438 423 438 440 414 395 349 322 348 337 336 341 339 333
251 253 252 254 257 260 271 268 275 282 320 325 323 322 337 413 401 387 374 395 473 459 443 418 393 389 385 463 446 434 461 462 438 410 390 351 323 350 337 335 330 333 336
251 257 259 253 266 279 273 275 290 316 317 322 333 349 408 395 381 379 392 446 467 449 436 417 402 388 411 431 450 446 465 462 436 409 388 351 325 356 341 337 330 325 328

GFSGL_2pvu_pres_063.txt.gz
Presure
221 214 207 207 221 208 207 209 212 210 211 212 209 207 203 216 216 218 205 202 195 196 202 199 193 204 209 211 204 210 216 217 218 230 239 246 240 246 260 276 267 282 316
203 205 204 211 208 211 209 203 204 204 205 205 205 214 216 205 206 202 205 194 195 199 197 191 203 207 209 200 203 218 216 219 237 238 246 236 244 255 273 272 285 313 329
204 201 208 214 214 206 203 201 201 207 198 200 208 222 225 224 217 195 196 194 198 195 196 202 207 205 210 196 221 216 218 235 238 245 234 244 256 274 271 296 318 328 333
211 217 219 211 206 204 204 202 205 230 237 237 234 214 201 199 196 195 194 197 193 199 202 208 209 203 215 221 213 214 229 242 233 231 244 257 271 270 298 320 328 336 424
206 215 219 211 210 206 204 204 204 200 200 201 198 200 197 196 195 195 195 197 201 209 198 208 194 214 219 211 219 225 240 238 229 243 257 271 277 303 317 322 392 421 411
213 212 211 213 211 206 202 204 205 203 201 197 194 195 196 196 199 200 203 209 205 199 207 187 208 215 207 229 222 230 229 227 235 253 265 281 288 316 320 426 420 408 411
207 205 203 208 209 205 201 199 199 198 194 199 199 200 202 204 205 203 206 205 202 205 204 212 210 216 235 229 238 228 228 239 253 259 280 293 323 320 430 415 413 424 438
207 206 204 200 206 208 208 204 203 202 204 205 202 200 198 204 208 201 200 213 211 212 209 213 220 232 227 233 222 234 245 257 268 292 306 327 323 428 420 444 456 464 376
210 204 205 211 210 206 204 204 204 203 207 212 211 210 208 204 206 214 212 211 212 212 220 212 238 226 234 223 236 247 254 274 278 325 326 332 425 443 464 457 400 374 359
213 215 215 215 215 215 211 214 213 208 207 205 206 207 211 207 221 220 218 222 235 239 232 234 227 236 228 247 243 254 274 290 317 318 433 423 441 441 405 385 367 362 369
224 222 215 210 209 208 207 208 212 207 206 207 207 212 216 216 223 229 227 226 240 241 240 237 246 249 244 245 260 270 292 318 325 430 418 416 429 399 378 366 362 364 394
200 199 203 212 210 217 211 209 215 216 215 212 217 224 224 223 224 233 228 226 231 244 242 249 244 242 254 268 273 278 318 321 441 419 409 417 398 380 369 367 355 420 400
214 201 210 211 210 207 216 217 225 230 224 214 214 216 219 222 221 231 226 231 246 252 245 247 250 256 278 262 278 314 323 439 423 409 404 398 384 368 366 354 353 401 387
219 232 225 215 223 229 211 206 206 214 213 220 214 217 226 230 240 236 240 248 246 248 253 247 262 285 272 287 320 320 437 432 409 391 402 391 373 361 355 348 399 389 378
229 216 215 227 218 212 214 214 218 220 212 225 238 226 255 240 233 250 254 248 253 252 260 277 285 277 292 325 319 439 421 413 396 378 382 379 363 354 347 343 392 380 391
217 204 209 226 221 228 225 223 228 234 237 244 252 262 232 234 260 255 257 255 255 266 277 270 283 307 317 317 436 412 409 399 376 379 373 373 361 354 339 339 381 372 391
232 229 227 229 255 249 226 232 237 245 257 225 233 238 266 258 259 253 252 263 274 256 277 298 316 319 325 431 415 402 403 393 369 379 364 367 360 352 340 340 375 372 381
244 241 237 228 231 240 244 254 249 228 238 259 260 255 253 252 253 255 253 271 263 276 289 314 318 325 436 416 389 401 400 389 399 380 360 364 363 353 342 341 371 375 371
227 247 259 244 245 240 225 228 245 251 248 251 261 250 255 254 247 250 268 279 274 290 298 320 346 384 415 390 395 455 426 408 399 376 391 368 367 356 344 343 368 368 364
223 234 216 255 251 247 234 241 241 239 250 258 251 255 253 248 257 269 274 276 291 298 331 350 390 412 396 388 466 449 421 402 389 429 405 375 349 368 345 345 353 361 360
245 241 239 247 244 242 240 239 239 247 254 254 259 254 253 261 269 276 276 289 309 332 353 422 409 393 384 407 465 437 410 391 398 366 339 364 373 357 350 348 351 355 358
232 234 239 241 245 241 238 244 257 253 258 262 257 257 263 270 280 276 292 312 331 358 414 404 391 395 403 475 454 424 397 382 386 366 333 355 335 372 360 349 335 349 355
238 240 238 238 237 235 245 259 259 263 261 257 260 272 276 277 278 300 329 332 373 413 402 397 404 407 479 461 442 414 387 380 379 370 424 424 365 350 364 350 334 347 346
234 234 238 237 242 260 255 267 262 258 257 272 277 268 277 295 310 329 326 409 411 405 412 416 421 479 464 447 428 403 393 384 455 440 443 413 429 398 396 356 335 347 340
237 240 239 246 263 266 261 260 252 257 275 272 276 290 310 325 338 356 418 411 419 429 435 447 478 466 451 434 414 399 390 406 427 431 448 405 423 404 391 358 334 349 338
238 245 262 264 259 261 258 263 276 275 279 288 309 325 342 356 389 416 424 442 428 369 457 473 465 453 437 418 403 391 398 397 456 443 407 443 423 403 385 357 334 350 339

GFSGL_2pvu_pres_066.txt.gz
Presure
223 222 221 226 219 216 216 202 204 207 208 211 215 215 205 197 201 204 208 212 218 213 214 209 203 203 203 204 204 206 211 207 211 211 218 218 226 228 247 241 247 241 261
221 212 208 227 210 187 196 207 206 208 213 215 206 205 205 204 209 221 230 224 224 227 221 198 199 205 203 208 205 210 209 215 219 219 216 220 228 240 239 248 232 261 269
213 184 186 179 188 194 205 207 210 221 211 204 201 201 204 204 248 246 213 199 197 197 200 202 204 206 203 204 204 214 220 222 214 222 222 228 239 235 242 238 260 269 282
187 195 192 192 197 201 207 207 215 208 203 202 201 202 202 203 203 203 201 199 202 202 203 203 201 202 204 208 213 212 217 224 230 245 249 249 242 251 242 258 268 291 314
209 207 203 228 220 216 205 203 207 216 216 215 214 210 207 206 205 203 201 203 204 203 198 204 209 215 212 217 216 219 230 230 234 243 240 245 248 257 260 270 284 279 338
229 231 227 236 227 208 202 217 213 213 207 210 213 211 210 208 206 207 202 195 213 219 210 208 214 220 219 220 229 229 231 232 228 247 242 247 252 258 270 290 278 338 439
217 237 244 236 232 231 223 216 214 211 207 215 214 214 214 207 211 207 208 211 209 210 207 211 216 222 228 218 221 238 235 239 245 254 251 253 259 274 289 319 333 426 419
227 225 231 230 224 221 214 211 212 219 223 213 207 210 207 209 207 207 216 213 218 215 216 218 221 216 216 222 242 240 238 250 248 250 257 268 286 277 323 329 420 415 419
227 224 222 227 221 218 218 224 224 212 214 214 217 207 219 218 216 214 218 226 226 216 223 219 216 217 226 234 241 232 252 248 246 257 268 271 305 326 327 429 409 407 406
232 220 217 211 185 220 195 217 209 212 208 213 216 216 222 210 217 222 232 214 229 215 215 228 229 248 255 235 231 259 250 251 268 262 260 309 323 325 433 408 400 402 393
240 243 235 225 221 202 209 208 199 207 203 206 214 223 230 231 218 215 209 225 229 228 234 248 248 231 228 261 252 246 251 271 269 288 301 328 347 432 412 399 387 388 379
237 229 230 232 230 229 223 211 217 216 221 225 215 225 208 217 225 224 226 227 235 244 233 235 229 261 255 243 247 250 270 268 287 299 330 361 430 409 403 388 378 383 368
244 242 239 229 228 214 213 228 230 230 233 217 212 222 225 228 228 242 237 239 239 231 230 261 251 255 251 248 243 266 273 284 293 317 376 429 402 394 390 378 377 382 365
239 241 237 229 229 214 227 229 230 234 230 226 237 238 230 234 238 251 249 222 229 240 252 253 259 255 248 255 268 278 273 294 318 442 432 404 395 396 382 374 367 370 360
259 244 241 241 241 236 229 217 224 233 245 234 228 250 255 244 223 215 214 224 245 253 261 262 255 254 256 274 272 272 296 318 396 434 413 388 414 395 378 373 366 365 355
249 259 264 255 249 247 245 243 229 229 243 238 232 224 234 236 236 239 251 252 258 261 264 258 253 262 273 268 278 294 319 376 424 411 393 427 433 404 387 372 361 360 353
252 236 238 238 239 241 235 200 211 233 225 222 224 214 208 210 228 252 251 262 258 266 257 252 262 267 276 281 294 321 361 420 405 399 412 466 428 407 389 368 358 359 348
247 231 219 228 226 224 225 226 224 218 226 213 234 247 241 241 244 245 251 256 262 255 253 262 271 278 282 300 333 379 417 409 403 404 459 448 418 395 377 363 374 357 349
247 244 231 232 239 228 244 216 249 239 227 214 249 245 248 247 243 250 258 261 251 253 265 268 279 288 306 337 385 422 413 419 416 440 454 433 405 380 398 396 372 361 353
206 245 241 234 232 234 244 231 236 241 241 247 238 239 239 247 247 258 258 257 258 270 268 281 292 317 357 432 425 429 435 435 456 462 444 418 392 409 397 390 372 348 354
242 230 220 227 241 233 241 245 236 237 238 236 240 242 251 252 256 257 260 253 268 276 286 294 331 369 432 425 447 452 378 469 467 449 430 405 384 375 356 336 332 363 353
236 248 230 237 229 237 234 231 236 236 232 241 245 261 254 262 254 253 262 274 281 289 302 344 437 429 421 444 400 375 472 472 452 436 416 394 379 374 367 343 345 375 355
217 232 218 233 230 233 236 234 233 235 245 245 254 261 249 251 255 268 282 285 294 316 398 426 411 400 409 395 380 469 473 455 440 423 403 390 377 375 367 389 381 352 356
243 217 240 230 230 233 235 234 246 247 249 262 265 250 252 267 285 280 292 306 387 421 404 389 385 410 406 473 476 473 457 443 427 409 397 384 422 443 407 408 391 359 358
224 229 232 234 237 240 255 249 242 248 263 252 254 259 279 282 290 296 353 430 413 392 378 373 439 480 476 476 468 456 445 430 414 400 388 390 409 430 436 407 404 371 385
231 237 237 237 241 250 248 241 262 260 257 260 274 285 294 299 340 414 414 397 385 372 369 483 479 478 475 465 454 445 430 413 402 390 399 389 392 409 436 407 405 390 384

GFSGL_2pvu_pres_069.txt.gz
Presure
222 224 218 215 212 211 202 192 195 195 207 205 199 207 196 207 203 212 212 207 207 203 202 203 226 239 216 246 207 209 205 206 211 212 213 218 224 233 225 225 233 256 251
193 207 199 201 210 208 192 213 197 193 212 218 187 192 198 203 211 216 212 205 202 203 204 205 205 205 204 204 204 206 212 217 221 214 215 224 227 220 229 230 250 241 254
197 196 191 188 201 177 192 182 188 188 186 186 191 192 195 199 212 207 209 209 210 212 209 207 208 212 203 212 214 215 217 216 220 224 228 216 227 226 236 256 238 258 265
187 166 172 175 176 210 182 189 190 188 188 188 192 197 194 204 201 216 213 214 210 212 212 205 204 210 215 216 218 221 226 226 217 219 225 230 238 256 242 243 262 256 260
211 201 202 187 188 189 190 194 197 197 193 218 224 219 217 223 208 214 208 208 221 224 218 217 218 223 226 223 219 214 220 231 228 235 240 260 230 237 267 262 255 255 282
229 209 208 202 205 231 226 220 236 232 233 230 220 231 223 223 217 224 226 217 217 220 224 220 226 224 219 234 225 216 223 229 245 242 223 247 267 251 241 243 265 243 294
229 242 241 231 228 228 222 239 238 232 227 235 230 224 224 226 228 221 213 210 209 214 221 226 226 235 224 226 225 238 229 241 233 239 243 257 260 243 257 267 275 281 313
263 264 254 249 245 241 239 234 231 226 226 199 203 216 215 207 218 197 210 216 220 221 214 220 231 228 217 238 236 238 240 222 229 234 264 258 254 253 267 274 288 304 338
236 243 246 271 258 256 256 247 232 228 223 219 218 211 202 211 218 216 216 226 223 195 215 230 236 240 233 248 233 218 217 225 243 262 260 249 255 269 276 285 302 331 433
212 217 238 234 253 264 251 240 239 238 238 237 235 233 226 229 225 229 237 194 231 213 237 237 243 243 234 218 225 227 225 265 260 241 249 256 269 277 283 302 356 434 416
226 239 221 241 258 257 253 247 246 238 239 238 237 233 232 231 234 234 234 238 242 238 245 226 229 230 225 222 239 221 257 257 246 252 260 269 278 282 300 346 437 415 397
214 224 228 231 243 279 255 248 247 247 246 220 241 239 234 229 229 236 247 236 231 238 218 223 213 209 218 219 242 258 242 244 253 263 269 279 286 300 418 435 415 398 388
216 222 235 234 234 247 260 251 258 247 243 244 246 254 248 242 223 203 216 216 217 235 210 218 219 243 256 248 255 240 240 253 258 268 278 287 299 447 438 419 403 394 418
219 215 218 227 233 242 258 255 258 249 258 248 236 228 229 211 217 217 211 216 219 226 213 216 238 250 241 245 250 258 250 261 267 280 289 298 427 440 422 418 411 453 419
205 214 224 229 229 251 264 265 248 246 233 225 227 228 226 222 215 218 215 233 240 235 220 227 247 250 256 251 257 252 257 266 278 287 299 451 437 434 429 424 453 440 413
208 215 222 227 224 240 274 256 256 246 243 241 233 233 234 244 216 220 237 249 235 251 250 231 241 251 253 254 251 260 267 281 285 301 450 440 441 440 428 444 451 428 399
214 215 226 240 233 263 265 250 245 249 247 242 238 214 220 246 240 233 240 243 229 241 243 233 245 262 257 254 267 266 280 290 306 444 429 436 458 388 379 465 439 407 388
214 220 227 227 236 265 262 261 237 236 227 226 243 238 227 250 243 242 240 245 245 247 243 241 244 255 257 265 267 285 294 311 430 405 389 409 394 371 460 443 425 401 379
206 223 227 235 237 275 260 247 240 239 227 218 228 238 240 241 233 238 249 236 238 239 238 251 253 264 266 274 281 305 321 421 396 378 397 403 413 464 453 434 411 391 383
224 222 231 236 261 267 260 252 247 244 253 228 234 239 239 234 239 242 237 239 240 231 257 257 262 268 274 285 316 343 416 394 379 371 430 473 476 457 442 424 397 389 401
220 215 213 241 264 261 253 251 241 244 229 229 241 239 240 229 226 240 241 240 248 253 271 272 265 288 299 332 423 403 388 382 369 484 476 479 462 447 430 412 389 380 362
223 225 237 251 263 263 250 247 241 226 235 239 234 233 242 242 241 240 227 254 257 273 266 280 286 308 435 415 397 385 386 374 482 478 480 462 446 433 420 399 380 370 361
222 234 242 266 273 260 246 245 231 237 238 235 228 218 241 240 232 257 253 271 269 274 284 307 350 421 406 389 387 395 448 481 479 477 463 448 435 420 405 390 378 369 370
235 243 258 271 267 253 250 243 235 238 229 218 236 242 236 257 254 265 271 274 278 296 319 419 411 398 379 407 387 485 480 481 474 460 450 434 421 406 396 381 380 400 407
241 254 258 259 262 255 223 239 240 223 239 242 241 259 261 257 268 275 279 292 327 422 410 401 387 409 389 426 485 478 478 472 458 450 436 419 405 396 384 388 455 418 402
260 258 270 273 256 240 241 251 231 248 249 260 260 258 267 274 282 298 355 426 413 403 391 402 397 414 494 487 476 473 468 456 449 435 417 404 395 384 389 386 409 426 398

GFSGL_2pvu_pres_075.txt.gz
Presure
222 225 226 227 234 229 212 205 214 210 207 208 212 207 227 224 223 217 219 166 215 216 200 204 204 191 198 199 193 201 203 195 233 205 232 201 223 226 206 218 233 239 244
224 231 217 220 210 211 205 200 204 197 197 194 219 232 207 207 186 186 187 187 199 192 193 186 209 185 208 195 196 200 188 202 235 218 185 219 209 225 213 233 242 229 222
219 227 228 209 208 203 205 197 205 201 203 212 193 197 197 196 182 182 186 184 196 186 197 191 190 191 191 191 194 207 206 217 232 224 215 214 225 211 230 244 220 236 229
224 214 219 210 199 216 198 183 193 191 198 205 199 202 186 188 182 191 189 193 202 191 192 191 185 191 200 201 198 214 221 234 224 216 222 235 221 229 217 224 224 209 241
239 236 221 216 210 202 204 197 192 202 187 191 190 199 193 188 190 192 191 197 200 200 201 199 205 202 226 218 223 230 230 226 233 238 227 227 222 239 212 214 216 206 249
244 247 249 230 209 201 206 202 206 189 184 184 191 211 200 197 181 193 193 201 205 205 205 207 226 253 243 243 242 235 236 239 229 231 259 246 235 209 218 229 213 234 228
228 222 222 224 204 197 192 202 183 182 183 189 190 193 190 207 243 243 250 281 252 269 268 259 256 248 247 237 231 231 239 249 248 248 231 230 213 230 238 231 251 220 256
180 221 220 219 225 223 226 225 222 218 217 218 221 229 238 233 241 241 235 245 277 292 274 263 251 246 244 241 242 244 253 254 228 237 237 234 245 228 225 233 226 230 223
216 205 204 208 217 208 215 214 213 212 210 207 210 215 217 217 235 226 237 246 253 238 291 275 264 257 252 252 249 245 237 239 238 243 236 225 225 226 229 255 211 245 234
201 210 206 208 209 180 211 211 210 213 214 212 204 229 213 220 216 222 235 226 240 250 285 280 266 263 257 250 243 241 239 235 225 231 237 226 220 242 239 232 248 262 232
199 200 214 208 206 215 214 212 210 211 212 220 212 204 223 225 212 206 230 222 216 225 245 274 269 272 241 238 240 240 239 227 225 234 218 221 246 219 226 252 254 228 251
205 210 218 211 212 211 214 215 206 209 205 216 218 214 217 223 216 214 217 229 221 229 230 247 279 266 262 252 241 240 241 244 227 220 232 231 246 253 220 253 253 241 267
204 208 215 216 212 213 205 214 213 213 203 217 214 215 215 225 199 212 209 229 218 221 232 237 252 269 271 261 256 244 239 237 229 227 242 261 249 240 254 253 252 267 268
206 204 211 223 215 214 214 215 214 208 206 211 213 214 217 225 214 212 212 225 228 218 246 239 245 255 265 264 261 259 253 233 230 255 258 248 247 259 252 253 264 269 278
212 204 206 223 221 217 213 215 213 210 209 184 214 215 207 222 211 208 212 226 222 217 240 238 248 256 257 265 265 256 241 240 253 258 249 250 260 255 255 266 271 280 297
213 209 206 221 219 216 213 214 214 217 206 213 217 221 223 216 208 214 220 219 217 230 242 244 254 262 274 275 269 241 240 259 256 248 253 256 259 258 266 272 284 296 340
215 202 211 217 217 219 217 215 222 209 214 215 218 227 219 196 216 217 219 217 232 230 255 253 256 276 267 262 241 251 256 252 252 256 255 259 263 271 275 289 309 379 396
201 205 212 216 215 216 216 222 213 215 216 218 229 219 217 214 222 226 213 237 228 257 254 263 276 275 260 246 255 254 253 260 257 259 262 269 276 284 296 330 409 396 390
205 215 215 214 217 224 224 217 221 221 222 227 219 216 215 224 225 209 229 233 247 267 266 274 277 241 253 259 256 262 259 257 264 269 277 283 296 366 413 409 384 421 396
218 217 220 223 222 217 221 226 220 229 227 216 227 221 225 223 222 229 240 243 264 264 280 251 250 258 255 259 263 260 263 273 279 284 294 310 419 414 400 393 421 476 480
217 226 225 215 216 224 227 234 229 227 216 228 225 228 234 227 232 242 246 261 267 275 284 260 252 262 265 264 265 276 280 286 298 414 424 413 400 398 432 419 498 484 466
228 225 218 216 227 227 229 229 235 233 226 233 236 232 233 238 250 248 264 272 279 279 260 259 268 265 268 278 286 295 311 354 424 416 400 420 435 420 506 494 483 469 461
227 227 221 222 235 230 220 237 230 236 239 236 245 244 239 251 256 271 281 281 256 265 269 270 275 280 288 299 357 437 426 409 418 442 431 416 494 496 490 478 468 459 448
235 234 234 236 230 226 232 233 240 237 246 244 243 252 258 265 277 282 266 273 270 274 279 282 296 309 421 431 418 444 446 438 427 416 517 498 484 482 475 464 456 444 432
241 244 242 237 238 232 240 240 248 244 250 253 258 266 270 296 266 289 270 276 281 284 311 326 384 429 461 453 440 442 447 536 521 506 490 476 471 466 463 450 441 432 422
242 244 247 245 242 240 246 249 253 255 251 271 275 299 292 281 274 278 282 295 324 374 453 470 457 443 492 571 556 539 523 507 492 481 469 463 458 457 449 439 429 420 410

GFSGL_2pvu_pres_078.txt.gz
Presure
221 226 228 231 232 219 199 197 228 208 175 222 223 225 231 229 220 232 219 218 227 215 168 199 199 199 199 201 194 210 201 206 195 199 205 205 205 211 229 230 226 228 231
214 218 222 227 227 230 235 236 229 218 235 231 232 230 231 241 227 202 223 196 183 194 203 204 194 194 201 199 194 203 204 211 210 201 211 229 223 237 234 234 241 232 230
238 232 237 239 236 228 234 235 233 229 226 229 218 219 195 194 213 206 193 204 203 194 190 193 187 196 193 199 202 214 215 222 236 249 245 238 237 230 241 226 223 228 240
263 238 232 230 244 252 230 215 223 213 215 219 208 203 200 195 187 191 191 192 192 186 193 194 198 200 203 211 239 256 263 253 242 240 240 234 228 236 232 237 237 239 245
244 235 230 230 227 226 222 228 212 199 199 191 189 197 197 205 195 187 188 199 202 202 199 201 204 203 215 244 247 293 277 263 254 247 241 239 238 240 243 244 250 255 219
209 228 237 238 249 240 233 228 223 217 215 212 210 210 193 191 191 195 201 204 201 202 218 220 221 236 222 190 234 247 290 288 273 263 255 250 249 246 247 249 241 238 235
208 207 197 216 227 222 219 214 218 210 204 201 197 215 227 220 213 219 205 206 207 212 219 211 210 200 224 223 220 218 238 248 284 271 259 253 252 250 251 244 245 235 233
173 203 179 207 208 207 209 216 219 216 216 213 207 211 212 211 206 205 204 204 224 226 217 227 203 212 210 231 219 222 216 242 243 262 269 265 255 252 252 248 240 239 240
203 192 167 168 201 198 202 209 203 204 207 210 210 209 206 207 209 211 209 206 217 208 196 231 222 213 213 210 227 224 218 229 236 237 252 268 273 264 258 253 248 253 252
186 185 206 200 200 198 198 208 207 212 211 211 215 213 216 215 213 212 203 221 221 222 219 228 225 210 217 209 223 217 227 229 246 247 250 251 260 264 264 267 272 271 263
201 188 162 200 203 204 204 203 197 213 221 216 216 215 207 214 215 211 213 204 210 220 223 215 219 206 214 216 218 217 230 228 246 251 247 252 264 271 269 267 274 242 247
196 202 196 200 204 201 192 200 205 203 203 220 218 214 216 210 213 215 210 205 214 216 220 220 214 212 216 219 222 215 228 229 241 257 255 259 272 272 269 253 254 254 253
192 199 190 198 203 204 192 199 211 206 204 210 215 216 215 214 214 215 217 215 213 218 220 223 214 214 216 221 219 218 229 233 244 257 257 258 286 242 255 252 253 262 263
200 197 193 199 195 202 204 195 211 212 204 205 215 216 218 217 217 219 225 216 218 212 224 217 215 217 220 221 207 226 219 235 242 260 259 248 289 251 248 259 262 262 257
203 199 199 193 202 201 198 200 213 210 205 204 215 215 214 220 219 228 226 220 223 225 220 215 219 221 223 220 226 219 232 230 254 263 267 279 260 248 264 262 262 262 267
210 200 194 206 204 196 196 210 209 215 213 205 219 212 224 223 229 223 219 226 227 220 215 223 222 228 224 225 234 235 240 243 269 273 268 265 260 265 261 263 267 267 274
194 213 201 205 204 195 208 207 209 223 221 216 213 217 222 215 223 219 219 225 219 217 228 227 234 224 230 236 229 254 242 272 276 268 272 268 263 263 268 271 276 288 299
209 187 210 209 197 206 208 203 210 220 219 216 215 227 217 219 220 224 225 218 221 228 231 233 223 243 237 230 259 251 267 282 273 273 268 264 274 274 271 293 304 314 381
205 210 204 206 214 206 204 206 220 225 223 225 228 228 219 217 225 227 216 227 231 235 228 245 245 236 238 262 260 275 263 271 274 266 276 278 281 293 298 359 413 425 410
212 208 215 210 206 208 213 221 232 233 233 226 228 229 226 229 231 234 230 239 236 236 249 241 239 259 256 276 290 288 274 277 276 279 288 297 311 404 433 409 411 399 433
216 219 212 222 216 222 231 236 235 232 234 229 231 220 228 233 232 237 240 237 247 251 239 252 263 269 278 296 285 277 279 281 290 296 338 438 419 417 405 443 440 430 415
223 219 220 229 235 229 237 232 237 229 231 234 229 231 227 239 242 244 245 251 245 258 267 266 280 297 293 284 279 283 291 299 407 434 425 445 449 448 437 421 403 514 501
233 225 226 233 239 234 233 239 218 235 238 231 226 237 241 247 250 252 254 261 270 267 281 304 296 289 279 287 296 327 451 458 465 464 452 435 501 495 532 518 502 491 482
228 233 234 237 239 242 235 237 239 230 226 240 240 245 250 256 258 264 275 268 284 296 297 299 280 288 303 455 474 475 471 461 591 577 565 548 527 515 503 493 482 470 463
239 243 243 242 241 240 236 235 220 227 244 241 259 259 258 267 279 274 284 296 299 300 283 288 311 457 480 521 609 595 581 568 556 544 529 513 500 490 482 468 461 455 449
244 244 241 239 233 225 213 247 248 243 261 256 262 270 288 278 289 299 302 299 287 290 315 477 521 600 590 578 565 554 542 531 518 505 489 479 472 467 462 456 450 443 437

GFSGL_2pvu_pres_081.txt.gz
Presure
224 229 234 237 238 230 226 226 220 222 215 215 216 223 214 217 230 223 234 225 220 214 200 203 203 194 205 205 198 198 199 203 202 201 202 209 229 283 273 262 251 247 247
239 224 220 222 225 228 234 238 242 239 233 228 219 217 216 216 231 229 226 215 215 210 198 192 223 211 198 209 202 190 192 193 223 209 214 223 221 236 241 270 265 251 249
260 247 241 236 229 227 232 237 234 230 219 218 223 226 229 226 217 215 214 199 209 204 194 212 190 197 200 195 197 201 204 209 208 195 239 224 189 207 220 206 258 271 259
208 245 250 260 254 235 229 222 216 229 237 219 217 214 216 213 203 202 200 200 194 207 200 197 187 182 199 204 215 205 208 211 218 199 205 195 225 226 217 213 231 233 240
203 202 207 225 248 245 241 236 222 237 218 215 219 219 216 210 215 221 217 207 199 211 225 221 206 205 209 209 209 201 205 214 208 221 226 212 196 224 216 230 227 239 243
183 183 174 204 201 196 216 230 229 227 228 225 222 222 220 218 215 216 212 214 216 212 211 212 210 206 203 206 198 197 202 199 225 226 223 214 219 217 211 223 227 226 253
188 183 191 202 197 183 207 210 180 211 213 211 211 209 213 217 163 216 216 214 211 207 205 203 204 203 206 202 206 214 216 223 214 219 217 207 201 218 220 222 227 231 230
197 189 190 193 200 200 198 185 200 187 183 204 208 211 210 209 207 205 204 202 201 201 200 204 210 206 202 203 197 200 217 220 219 216 212 216 218 224 219 217 226 234 229
188 194 193 190 191 190 191 203 202 204 187 195 200 202 199 199 202 214 214 214 213 212 210 201 211 209 214 209 210 204 219 221 225 219 212 217 222 221 219 226 232 235 243
180 187 196 194 191 192 196 193 184 184 199 201 201 206 199 199 201 200 203 204 209 212 216 214 214 211 215 214 225 225 221 219 226 216 217 219 220 224 218 228 232 234 248
181 189 188 183 180 184 169 191 194 192 193 195 201 192 190 192 212 211 206 206 205 213 213 213 213 217 213 219 226 224 218 208 218 216 224 219 226 226 229 235 231 250 239
199 203 205 173 192 199 186 186 191 198 192 196 198 198 196 201 211 205 208 214 204 207 213 209 213 217 220 228 226 218 211 217 218 222 221 224 230 223 238 232 236 246 254
203 203 167 182 198 221 222 180 186 206 201 207 192 201 197 195 205 204 202 212 214 208 213 206 218 215 216 220 221 224 218 216 223 227 224 225 230 241 231 236 250 254 268
200 198 180 171 203 185 182 205 189 194 196 206 205 202 198 193 205 202 199 214 215 216 217 207 223 221 217 216 228 224 219 227 230 233 228 230 238 231 241 253 257 268 287
174 198 207 201 185 181 206 197 207 200 200 206 204 206 207 196 204 202 204 214 218 221 224 223 222 224 224 221 224 227 230 233 235 232 231 236 244 241 255 264 272 289 284
203 202 203 200 204 209 212 203 206 194 202 205 198 209 205 210 206 205 214 209 224 225 227 218 226 224 221 225 227 238 240 236 234 230 240 255 253 262 269 278 300 282 270
201 199 204 203 198 201 201 213 213 205 208 210 211 213 216 206 211 212 207 225 228 223 229 225 236 223 226 234 234 241 238 234 244 254 263 254 266 286 298 287 278 278 290
209 203 210 207 203 203 203 203 212 203 216 212 217 215 211 214 214 211 226 234 220 230 224 235 226 229 236 224 238 246 244 249 262 279 280 288 297 299 288 280 288 301 312
213 211 211 208 211 210 210 214 212 215 217 223 225 212 215 223 224 227 234 217 231 233 237 225 236 233 233 244 252 246 257 282 286 290 301 302 292 287 293 307 331 447 440
211 213 214 215 213 216 222 223 225 222 223 212 217 223 226 219 233 231 226 232 242 232 228 239 238 242 252 249 249 257 299 284 304 306 292 287 299 313 350 454 457 472 390
226 223 227 229 230 232 232 225 224 215 215 232 226 217 227 232 234 230 248 239 244 250 240 243 252 255 252 262 303 301 302 309 294 293 306 330 488 492 486 580 576 564 559
222 226 229 233 234 233 232 231 233 230 225 221 225 233 234 233 245 242 233 252 249 247 243 259 261 254 291 310 297 311 295 295 314 410 632 617 604 590 579 570 563 554 542
231 229 228 229 236 236 230 226 224 229 234 237 237 236 241 247 243 249 252 249 244 238 263 256 263 293 305 312 298 296 321 551 629 618 605 592 579 568 559 549 538 524 508
230 229 229 229 229 232 235 236 233 240 243 240 241 249 249 255 253 245 252 241 262 257 269 311 310 306 298 298 326 594 598 522 565 569 558 547 536 531 523 513 501 487 479
233 232 237 238 241 236 237 238 239 242 251 250 249 215 252 256 258 249 266 274 268 316 316 299 305 297 353 505 555 557 553 549 538 527 515 510 503 498 488 479 472 464 460
238 239 240 241 241 241 248 248 253 253 236 256 255 259 258 242 266 270 269 298 313 291 305 299 433 506 546 533 525 513 502 492 487 481 476 472 469 465 460 457 454 452 447

GFSGL_2pvu_pres_087.txt.gz
Presure
242 240 234 225 223 216 208 208 209 204 194 203 198 185 185 142 174 184 194 194 196 201 205 204 199 198 202 220 228 216 206 207 205 202 217 205 206 203 204 201 205 199 196
215 237 241 231 228 230 227 232 215 214 213 211 207 202 200 194 194 196 204 208 206 202 199 199 208 215 214 215 212 210 209 210 222 205 209 205 205 202 204 204 204 206 208
195 192 215 231 229 237 226 225 221 226 222 217 215 211 214 214 212 210 207 202 200 195 214 223 211 216 209 209 214 214 172 204 206 203 205 210 212 212 212 211 210 203 204
183 205 210 242 275 249 237 235 232 226 221 221 221 213 205 202 206 214 219 228 233 221 219 220 215 217 219 223 215 218 213 207 209 211 208 206 201 203 204 203 204 205 204
192 185 189 186 203 191 206 211 265 260 257 250 246 244 227 221 233 222 228 225 233 234 222 216 213 211 214 206 200 200 197 201 209 205 206 204 202 204 211 214 200 205 207
194 190 191 190 199 193 195 190 184 194 174 217 244 271 268 262 259 239 229 223 221 209 204 202 203 201 207 207 196 207 197 201 200 190 197 193 199 196 200 205 202 204 210
196 189 186 185 188 189 188 195 193 197 193 204 200 193 194 195 200 202 199 192 188 179 198 194 190 195 198 195 198 193 190 189 189 189 190 191 191 193 195 206 211 213 217
186 192 187 194 193 191 185 186 193 191 190 192 197 195 198 192 187 187 189 187 184 190 192 185 188 193 187 192 196 195 198 194 198 192 195 199 200 199 203 213 212 209 215
185 196 191 197 191 192 195 198 196 193 185 184 185 185 188 184 183 189 189 189 202 183 206 205 184 182 187 187 192 193 191 189 193 187 192 204 206 204 206 213 208 215 214
192 194 182 196 194 193 193 194 185 189 188 183 182 184 198 190 199 192 170 192 202 202 193 188 183 188 179 193 198 193 200 191 195 207 202 212 207 210 212 211 213 214 214
191 194 198 190 193 193 193 192 192 191 182 187 196 197 197 204 198 177 183 180 170 189 186 193 189 193 205 210 200 201 207 204 202 206 210 206 206 207 215 211 218 208 224
204 199 201 202 194 197 203 200 187 191 192 194 195 193 188 189 186 184 201 187 193 185 190 191 190 207 199 202 204 200 210 201 200 205 210 210 211 225 213 213 219 219 230
217 207 207 196 200 203 199 194 193 191 194 191 198 200 202 204 203 198 215 206 191 196 204 208 206 195 210 204 204 214 210 214 213 213 210 222 225 223 210 229 213 234 232
216 218 206 205 205 201 194 192 191 191 191 198 199 200 186 197 201 199 203 204 202 196 206 204 207 206 199 214 214 211 215 216 215 210 227 230 228 218 232 231 239 244 240
210 211 211 212 208 205 202 201 201 174 194 203 202 162 204 206 200 204 191 188 200 199 202 205 203 206 212 210 209 215 220 216 212 231 239 226 233 228 245 243 245 260 255
211 211 212 206 192 204 203 202 200 198 203 205 199 200 199 203 205 207 196 201 201 195 205 208 202 212 211 215 222 221 225 236 238 223 227 231 250 247 246 241 266 253 261
223 212 211 211 210 204 203 202 203 204 204 205 202 196 202 202 198 204 197 213 215 216 213 213 217 229 221 228 231 227 242 234 228 235 248 249 252 252 256 260 269 259 273
230 225 219 214 210 209 207 163 214 213 205 210 215 215 215 214 213 211 211 215 216 231 232 226 231 225 230 234 240 234 231 237 242 251 257 264 255 273 263 266 272 270 298
225 225 226 226 221 217 186 214 214 215 216 216 216 218 217 215 221 219 226 227 231 226 222 225 223 233 239 239 233 239 243 247 252 262 272 268 261 267 274 264 294 323 346
218 222 222 222 223 221 225 222 222 221 207 222 219 214 216 221 221 224 221 218 222 224 232 233 239 240 232 243 242 249 247 259 275 260 246 266 267 279 293 319 345 329 596
228 230 232 233 225 224 223 222 222 225 231 233 225 218 226 233 226 223 223 229 231 237 238 243 241 241 249 250 232 258 263 274 261 266 266 257 294 311 341 328 534 528 549
233 232 221 222 230 229 231 229 227 225 226 226 225 225 227 228 228 227 232 241 238 243 234 241 245 251 235 255 259 271 256 248 265 281 294 296 340 339 424 524 519 510 506
250 237 234 232 229 233 234 233 233 236 237 236 237 234 234 238 241 242 235 241 246 244 253 252 247 261 219 262 270 249 268 264 280 331 326 323 448 520 506 498 498 495 491
246 248 249 242 246 245 241 240 245 246 246 244 245 247 248 245 249 253 250 253 257 221 254 265 257 237 269 268 271 266 307 341 319 329 322 483 400 466 455 446 448 481 478
252 248 253 257 255 250 249 250 250 250 251 251 248 250 252 247 262 263 260 260 252 256 261 265 257 255 270 292 311 305 329 287 338 469 446 454 448 441 429 418 414 450 470
262 255 243 261 261 263 261 262 260 262 259 219 262 258 253 254 258 264 264 259 247 244 281 269 298 327 311 306 324 314 358 446 441 461 453 443 432 430 417 402 408 415 460

GFSGL_2pvu_pres_093.txt.gz
Presure
202 197 208 246 256 215 217 215 217 207 215 201 206 202 192 201 211 208 206 200 198 192 190 191 190 193 196 190 190 195 192 184 188 191 189 194 207 204 212 234 229 219 205
196 195 200 205 230 263 220 211 230 213 224 196 204 202 205 186 200 197 198 200 197 183 197 184 193 192 193 192 196 186 192 197 184 201 207 201 212 245 236 223 205 198 194
199 201 200 199 206 217 263 249 216 205 202 194 202 201 197 199 198 199 196 195 195 192 191 195 196 197 193 187 194 185 197 204 209 215 209 248 236 211 205 202 197 191 197
200 200 197 192 191 198 200 216 272 231 219 223 221 213 202 194 196 196 198 198 195 195 195 201 201 192 200 200 206 203 215 207 226 242 230 209 198 190 187 192 189 191 193
207 204 200 189 200 188 190 197 206 211 241 275 250 236 231 238 215 210 212 211 208 211 213 213 212 208 206 222 224 208 242 223 208 202 198 194 189 193 204 201 190 194 185
222 204 204 198 203 198 192 187 189 198 201 201 209 216 230 270 254 246 243 238 238 240 240 238 258 264 263 262 236 212 198 195 193 202 208 192 209 210 212 198 189 186 188
203 210 210 198 197 206 193 191 197 184 183 184 182 192 198 194 198 196 199 201 202 206 206 203 201 204 199 187 190 193 190 185 197 189 196 188 188 183 184 203 187 187 184
211 201 222 207 202 196 196 205 204 197 203 193 186 193 190 193 195 194 194 195 191 188 195 194 196 195 193 194 190 187 190 192 194 194 203 193 202 191 190 200 181 210 192
217 192 201 202 206 208 200 186 193 198 200 191 202 199 186 185 193 185 186 187 188 195 185 186 188 188 189 184 178 180 190 188 191 211 197 186 181 181 207 204 201 193 206
193 225 211 203 202 213 212 211 183 183 192 198 202 190 182 191 195 205 204 203 205 207 207 197 200 188 192 184 203 203 209 209 206 201 210 198 212 209 204 204 211 213 209
218 193 212 199 202 193 210 217 211 212 204 201 194 200 195 190 190 186 190 191 190 193 193 197 203 202 203 206 204 196 196 207 200 206 205 207 208 203 213 208 215 222 213
206 218 207 217 220 221 207 199 208 205 213 205 213 206 198 199 199 199 190 190 190 198 199 200 203 197 197 198 199 203 198 204 208 208 207 202 213 216 207 219 220 211 193
221 218 198 200 196 205 210 225 212 219 230 217 219 218 207 205 203 203 204 207 202 199 202 204 198 201 205 204 210 204 204 214 213 216 215 222 209 224 219 232 244 245 239
243 229 236 213 209 209 211 218 229 219 211 230 212 217 212 214 215 209 205 191 188 207 186 204 207 198 210 210 210 218 221 222 219 219 212 219 215 237 239 240 247 236 235
281 274 268 262 252 237 229 235 240 237 238 230 223 233 209 246 229 214 206 211 205 203 197 191 215 221 227 202 223 220 217 211 202 213 225 231 237 234 239 248 243 239 231
290 264 265 267 260 250 253 246 243 240 236 207 229 224 229 233 235 233 220 204 193 230 226 222 230 223 222 220 217 216 204 222 241 243 229 245 245 231 247 229 242 247 236
280 264 265 257 251 255 259 258 261 256 238 246 229 221 226 219 222 227 225 227 216 225 206 227 197 230 212 197 239 221 244 242 226 238 241 228 248 230 247 246 231 222 245
279 271 267 256 259 239 245 235 242 242 218 229 232 231 227 225 225 204 204 228 207 207 206 210 230 229 209 220 227 228 231 241 236 245 242 240 231 247 218 248 237 238 251
263 271 268 261 244 240 237 239 237 228 242 243 230 228 230 235 218 207 214 212 235 230 252 243 235 230 237 224 234 226 236 238 236 238 250 241 218 240 238 239 254 259 253
255 258 264 255 239 235 232 242 224 239 251 246 220 221 254 247 243 246 217 233 208 219 225 226 225 237 220 228 242 236 218 238 248 239 248 248 247 257 243 262 263 267 281
248 255 259 243 228 229 247 246 221 225 240 231 223 213 224 212 229 219 222 229 230 225 226 222 222 238 235 248 235 228 250 239 249 228 242 237 242 261 255 262 279 252 355
260 250 265 243 251 240 249 235 241 234 229 232 229 254 238 240 221 217 218 229 226 247 253 249 241 232 232 239 248 237 244 242 239 254 263 262 255 276 253 262 294 344 317
254 259 250 229 227 236 242 239 230 237 236 237 238 239 230 231 235 230 229 233 254 232 221 240 241 243 248 223 234 253 247 253 262 252 277 271 246 307 326 297 296 294 489
296 267 267 254 245 246 246 237 242 250 241 237 241 237 237 235 230 226 225 229 241 250 245 251 246 232 231 250 255 255 268 262 275 259 302 324 323 324 305 324 476 477 451
271 277 313 267 272 260 261 251 255 272 259 249 244 248 245 248 248 247 249 242 243 244 251 254 258 265 265 244 258 269 260 308 286 318 307 298 278 342 428 405 402 468 465
278 276 271 295 281 312 290 273 266 267 262 261 256 243 243 245 250 252 253 256 255 266 261 256 264 273 265 312 283 315 298 294 301 325 344 357 404 403 375 463 462 456 444

GFSGL_2pvu_pres_096.txt.gz
Presure
197 206 199 193 204 223 257 224 222 217 203 206 196 194 192 189 185 189 196 221 211 187 194 204 201 193 181 191 176 178 174 185 182 186 182 194 185 188 187 191 193 201 213
211 216 194 193 196 195 215 250 260 212 209 212 206 208 199 199 193 190 183 183 183 212 211 197 195 189 190 186 193 192 192 191 190 192 191 182 183 196 186 200 241 238 221
203 190 213 184 195 185 194 210 228 258 240 213 219 205 210 203 202 200 199 202 203 186 192 198 204 205 198 200 201 198 188 191 191 192 190 193 191 210 208 229 219 214 207
200 211 205 210 195 195 191 198 198 212 238 241 233 211 199 202 212 199 203 197 195 199 195 195 197 195 192 193 196 197 194 197 201 203 209 211 226 241 219 212 205 201 196
195 204 208 194 200 207 191 194 188 187 197 204 225 254 242 231 218 203 199 201 200 197 193 194 198 197 200 204 203 204 228 238 254 266 262 247 230 214 208 202 190 199 190
171 192 211 212 198 216 208 196 191 192 198 191 194 197 207 213 222 273 255 248 245 243 244 249 253 254 244 238 231 228 225 220 217 214 213 210 194 197 198 183 195 194 205
193 200 215 216 212 207 200 210 201 195 191 191 197 187 195 194 195 200 202 203 206 210 211 212 212 210 207 204 205 203 198 186 199 194 198 196 195 190 177 188 191 191 188
203 191 198 199 218 218 208 206 204 204 199 196 197 195 194 202 191 184 185 182 180 184 189 183 188 192 192 195 194 195 195 192 196 195 191 187 190 188 182 212 200 195 206
188 189 202 195 191 197 204 190 210 212 210 211 204 193 192 197 191 208 203 202 198 183 183 186 189 181 183 183 188 196 199 199 198 179 195 200 204 205 200 194 191 204 201
198 202 199 184 189 174 193 201 212 208 210 212 207 204 201 183 194 195 194 198 197 191 192 194 192 191 195 196 197 195 196 194 193 195 201 201 192 194 195 200 204 212 204
203 202 212 229 216 202 198 194 195 202 199 197 215 218 215 186 205 204 200 198 196 195 192 195 194 194 196 192 189 191 191 194 200 197 201 208 200 205 202 213 207 210 223
206 224 229 207 205 209 211 196 197 193 193 213 199 207 216 217 207 213 216 210 203 209 206 200 199 195 194 201 199 197 198 205 198 208 214 201 196 209 221 226 220 232 220
227 215 213 213 204 208 211 215 202 198 202 217 213 221 224 222 221 216 217 224 223 228 212 212 215 213 215 215 201 218 221 231 222 212 231 208 235 218 239 225 224 224 225
207 206 204 207 210 203 205 189 213 211 206 209 209 209 219 198 208 208 189 225 219 224 180 199 195 214 220 214 197 207 215 209 215 196 232 208 226 222 208 234 226 218 236
236 236 237 236 234 226 224 214 207 210 201 201 199 201 212 210 208 209 211 203 201 209 193 190 217 224 227 214 219 219 214 190 210 211 205 217 208 225 225 240 251 243 245
293 290 289 270 227 241 244 294 253 219 213 221 208 201 201 206 213 216 219 237 203 212 224 228 238 232 221 245 221 195 201 219 227 220 240 230 225 223 244 223 237 222 228
265 264 272 251 252 272 240 292 281 279 248 181 222 209 243 274 240 242 234 228 215 217 219 212 212 229 222 229 230 194 236 206 236 225 248 224 235 217 246 241 248 234 234
269 268 259 272 283 303 294 281 280 263 258 280 220 211 215 220 237 243 247 240 228 220 214 224 228 223 219 233 224 228 229 221 223 237 245 230 240 250 227 222 237 243 243
244 260 260 265 283 271 283 277 272 267 263 258 258 260 247 244 252 254 245 258 252 255 251 229 232 224 236 223 236 236 226 238 225 246 222 248 220 228 226 239 248 242 250
254 244 257 255 261 282 267 268 275 269 255 256 255 250 240 239 236 238 245 243 241 241 236 244 238 231 229 245 235 225 250 235 233 235 252 208 218 244 231 247 247 241 251
263 261 252 262 258 264 275 257 255 268 245 250 263 248 234 240 237 239 248 239 236 240 243 250 247 245 237 222 229 239 226 220 239 249 237 237 245 254 233 255 227 238 266
261 265 251 261 264 254 260 269 240 187 263 245 250 254 244 235 229 239 236 250 236 249 234 253 260 232 229 234 237 233 224 230 242 242 236 250 239 235 254 260 245 276 294
268 266 264 263 266 252 262 253 259 255 250 266 237 255 244 236 234 246 245 239 252 237 253 243 253 227 237 247 238 244 258 248 246 254 252 248 257 259 251 249 263 314 333
273 275 273 273 280 280 285 285 302 253 294 267 248 259 252 256 250 252 249 250 251 237 236 236 240 249 251 243 254 254 256 256 242 228 268 248 245 263 245 330 324 365 421
286 289 288 288 288 288 282 290 279 269 284 306 282 269 268 244 253 252 249 242 248 233 250 245 246 257 251 259 257 258 249 236 266 257 249 264 261 338 322 338 406 400 408
305 323 368 303 312 276 279 283 281 278 286 279 291 285 278 279 279 263 270 266 258 258 257 255 255 267 267 272 232 282 264 260 261 271 333 325 294 353 420 412 410 394 377

GFSGL_2pvu_pres_099.txt.gz
Presure
200 190 194 210 202 195 201 222 257 215 214 210 205 196 202 199 205 216 197 199 193 209 209 205 203 199 182 184 183 184 183 199 200 193 194 178 181 185 182 191 180 187 168
185 197 194 210 221 196 185 197 221 257 205 204 201 198 204 198 194 193 199 203 194 188 188 185 191 191 192 199 203 199 198 197 183 183 186 188 159 188 189 170 191 191 193
183 203 199 213 193 207 193 189 192 206 245 250 211 204 208 228 208 199 193 189 191 192 191 185 183 181 182 181 179 200 209 207 194 191 190 191 191 194 189 192 193 195 208
181 199 202 216 203 217 212 190 192 191 196 212 250 237 208 199 194 205 200 202 203 204 202 194 196 191 189 194 198 195 194 189 187 191 194 197 196 196 199 230 256 248 237
201 207 215 215 192 208 205 206 207 192 194 189 201 207 225 232 227 219 203 209 205 201 206 203 194 197 205 203 197 200 201 194 193 195 196 202 228 233 226 217 212 210 205
165 207 192 203 199 183 207 214 198 205 193 188 192 188 199 202 205 213 222 238 240 238 233 234 235 241 245 245 251 250 239 228 228 227 224 216 206 207 198 192 187 182 191
203 192 197 189 189 205 206 218 219 196 205 206 191 188 192 190 183 199 199 197 193 199 206 210 212 212 212 211 210 210 209 207 199 186 192 192 192 185 184 183 191 189 202
200 202 192 195 194 197 206 200 203 211 222 201 206 204 196 194 191 188 188 188 189 195 199 198 192 188 183 180 180 186 192 199 188 195 174 199 193 193 197 200 200 197 200
192 186 186 180 201 200 184 197 196 191 202 209 217 200 204 209 204 201 195 191 198 198 190 193 198 194 194 194 194 194 192 186 184 184 191 196 188 182 190 191 195 199 203
190 195 190 192 212 188 175 198 192 192 203 198 199 208 221 197 177 183 202 199 201 199 198 195 194 192 186 186 189 195 187 183 186 188 191 190 189 185 194 188 203 191 218
208 205 203 196 192 196 192 196 210 211 193 205 194 206 205 210 208 214 204 215 215 216 222 218 213 208 206 208 207 208 205 202 202 203 200 198 202 204 205 210 220 214 226
198 202 198 210 195 199 201 199 208 200 212 225 212 206 206 203 199 206 184 220 194 212 202 220 202 207 206 214 208 216 212 228 223 214 207 206 215 216 214 220 224 216 228
208 210 202 204 204 200 205 208 220 229 225 211 206 207 214 187 216 230 223 215 226 215 227 217 211 204 204 205 222 226 176 217 223 230 217 228 227 229 208 223 220 230 233
214 222 218 219 230 227 222 229 240 218 209 209 195 212 211 200 188 251 196 204 210 207 203 209 191 210 196 198 209 207 216 192 201 207 224 224 223 210 231 224 182 223 220
227 227 223 219 222 227 229 219 214 221 204 199 211 193 216 216 190 185 176 205 204 204 204 199 204 195 206 197 198 178 202 203 200 229 228 215 210 199 216 223 228 243 225
233 233 193 232 229 223 219 207 213 214 216 215 213 205 205 204 204 204 201 205 203 197 188 227 222 223 195 206 215 207 203 224 225 227 209 210 226 219 234 231 216 215 235
235 220 239 237 234 228 228 243 240 237 235 227 229 223 225 221 214 213 212 225 189 215 187 187 213 204 212 231 246 240 231 228 228 228 228 248 229 216 236 227 227 207 231
243 144 255 255 262 260 285 276 273 268 256 256 251 255 255 256 248 210 202 205 212 198 208 223 248 236 242 212 214 231 239 248 246 240 245 235 229 240 229 245 239 233 227
267 264 276 269 282 284 279 277 278 269 262 267 253 267 302 277 271 236 247 251 246 238 225 238 223 224 228 250 232 226 239 241 252 249 250 249 243 249 243 237 250 238 246
274 281 276 269 273 263 276 273 252 254 265 259 254 280 264 279 259 280 278 246 267 243 234 237 238 239 238 221 235 232 256 256 249 243 242 242 245 237 240 235 260 259 253
283 267 268 270 272 271 253 270 272 261 259 271 248 261 275 274 263 274 267 263 265 243 240 261 261 254 240 228 253 247 238 242 241 235 237 257 255 247 249 259 242 224 252
264 268 265 266 263 259 263 262 264 266 260 260 258 264 265 268 281 259 264 274 265 262 263 262 253 234 260 265 256 253 243 245 249 240 243 243 247 254 255 258 251 244 262
269 270 271 271 271 271 275 275 267 267 270 264 269 272 254 260 266 271 270 254 262 269 250 248 258 253 265 256 253 255 252 256 248 242 240 251 255 255 260 240 253 273 261
289 293 297 300 300 301 300 305 301 300 303 309 309 312 304 305 301 275 255 285 278 264 269 271 270 257 253 245 272 263 246 253 250 255 248 254 251 235 264 271 264 256 260
282 287 295 294 303 302 292 270 285 287 286 286 288 284 282 286 284 291 286 288 284 300 285 294 299 301 280 274 267 269 265 249 248 267 246 269 271 255 278 253 295 294 329
290 284 280 273 271 271 268 264 268 317 346 352 364 372 363 356 357 271 279 279 279 286 290 285 275 278 284 292 302 307 290 291 300 308 301 302 305 288 289 311 326 384 411

GFSGL_2pvu_pres_105.txt.gz
Presure
229 214 204 190 196 213 194 198 233 210 221 234 263 280 244 217 206 201 209 219 219 212 208 214 220 208 203 206 198 207 203 206 212 208 205 207 195 194 193 199 196 188 188
213 213 191 183 204 189 202 192 223 210 202 230 221 248 255 219 203 210 200 195 195 203 199 201 193 182 208 209 204 204 203 205 207 194 191 188 191 194 185 192 194 190 193
216 211 196 202 188 188 192 210 201 219 201 204 232 223 235 218 212 203 204 201 194 194 196 196 190 196 214 207 204 192 193 199 199 198 198 193 191 191 191 187 192 197 195
215 195 194 199 189 198 194 188 198 206 207 195 199 217 218 217 215 190 197 206 205 198 189 190 191 195 191 206 201 200 196 193 191 188 187 188 184 191 196 200 203 196 194
190 197 197 204 188 191 197 200 200 200 215 219 199 198 212 222 204 207 212 200 195 196 194 195 196 194 196 195 194 194 192 189 187 191 195 201 201 194 195 200 208 221 225
200 195 196 198 199 188 202 190 192 208 216 208 220 202 194 196 212 221 246 227 196 193 191 194 197 201 208 210 208 203 203 200 197 199 202 205 210 214 216 211 197 190 191
213 201 197 198 188 190 188 194 196 198 205 208 198 220 211 198 194 192 197 176 211 214 225 220 214 209 206 206 205 207 211 215 216 215 209 201 183 183 196 192 196 191 190
204 202 202 201 202 195 191 193 196 208 213 193 176 197 226 213 210 197 193 191 193 192 191 188 186 186 184 183 184 186 197 192 191 192 192 190 191 190 187 190 190 192 191
208 201 198 203 194 184 192 191 206 198 200 201 203 193 198 205 216 208 209 181 197 194 192 189 190 192 189 190 190 192 191 190 190 191 187 188 190 193 194 191 193 194 197
204 202 194 204 194 194 211 182 193 206 200 206 208 206 192 194 208 202 205 203 208 210 210 213 218 214 209 204 182 198 201 199 199 203 201 203 206 208 208 213 216 215 211
206 207 205 208 207 211 209 197 192 193 202 197 204 200 183 199 190 213 194 181 189 203 199 206 205 198 222 204 203 194 216 204 234 220 218 212 205 203 198 212 211 219 225
206 203 204 203 204 195 195 197 198 202 198 193 197 196 194 196 198 200 196 201 202 218 188 204 186 194 202 229 211 222 223 218 216 231 212 206 223 223 221 204 181 197 219
205 199 197 197 198 199 195 197 201 198 197 208 199 192 191 199 196 202 218 209 214 208 212 216 205 206 229 228 196 149 194 220 199 224 209 215 222 188 205 202 205 216 183
212 207 203 202 197 194 198 200 200 203 206 205 200 202 202 194 195 193 195 205 193 210 220 212 222 229 248 218 218 212 216 201 201 196 212 195 199 210 205 182 199 176 225
227 213 210 199 206 199 196 190 201 202 204 202 200 208 187 199 209 209 201 192 215 222 222 224 210 212 221 239 214 223 219 205 202 213 199 203 205 209 210 207 219 214 213
234 225 218 218 216 220 220 213 206 209 201 198 204 199 207 211 219 226 220 227 208 212 224 215 211 229 224 218 216 214 202 205 201 204 206 213 217 226 226 212 217 203 215
217 232 232 222 221 222 221 241 203 213 239 214 245 212 228 225 228 229 181 234 227 225 226 224 232 233 223 220 217 213 212 214 212 212 207 210 210 204 203 222 224 222 228
225 231 220 222 217 238 239 232 207 221 221 221 226 203 229 229 232 229 232 232 228 229 234 238 238 236 236 239 251 248 243 238 232 228 227 226 222 223 220 216 215 218 208
220 230 231 225 223 221 224 226 221 225 236 228 240 238 230 233 231 239 247 242 244 243 240 262 285 285 279 283 269 272 273 274 274 270 253 258 268 245 243 244 245 249 249
229 227 224 228 220 223 234 235 232 230 240 237 231 232 235 254 250 240 239 245 266 264 267 285 292 286 278 279 274 287 284 263 262 266 269 276 280 280 283 266 262 261 261
227 227 233 242 228 229 234 229 234 236 242 235 245 259 251 253 263 272 273 247 289 284 299 291 281 271 277 277 281 265 241 281 277 257 254 251 248 251 258 265 266 283 288
248 246 243 239 240 239 242 245 237 256 258 257 253 250 271 302 293 292 288 287 285 281 283 280 284 275 269 280 274 285 294 303 287 305 303 295 285 281 283 294 301 303 301
251 251 251 258 257 255 255 257 257 259 274 283 298 297 288 280 280 279 282 283 292 290 300 299 301 304 300 297 299 295 296 300 296 298 304 303 288 289 291 290 288 276 283
295 294 301 301 299 295 296 303 285 285 277 268 266 267 301 302 301 298 298 299 292 304 308 308 307 303 295 296 292 292 286 282 269 307 311 325 330 332 331 328 325 322 319
266 268 271 267 266 266 267 266 264 266 291 294 292 291 295 292 290 316 310 302 292 285 285 288 314 319 271 262 294 306 300 298 295 292 289 291 288 298 306 304 299 300 300
266 270 272 267 265 281 291 289 285 286 287 290 291 291 309 302 291 287 282 281 272 254 273 314 313 327 313 310 308 305 314 301 310 309 302 296 288 279 269 273 284 287 297

GFSGL_2pvu_pres_111.txt.gz
Presure
214 243 248 238 233 235 223 231 208 225 212 205 201 209 204 222 222 279 309 267 224 226 192 192 195 195 188 193 192 193 190 189 195 199 185 192 181 180 178 182 181 176 177
183 231 239 245 249 229 237 189 213 220 208 206 202 207 223 226 222 251 282 302 224 202 210 201 190 193 207 195 180 187 189 177 183 180 182 177 181 179 186 188 185 191 192
179 221 235 240 235 253 252 213 195 215 199 202 213 191 215 221 211 234 275 283 229 229 205 204 201 196 195 191 194 192 195 192 184 183 191 188 188 192 199 199 203 201 205
237 236 224 236 253 265 247 241 238 213 202 205 214 198 199 221 214 212 234 279 238 224 225 213 209 204 200 195 194 199 186 190 190 192 197 186 197 200 181 192 186 191 185
265 260 262 245 185 246 213 252 232 196 201 192 201 196 212 191 204 212 224 240 268 218 223 201 206 194 191 195 193 194 194 192 186 191 189 192 184 188 175 179 195 199 200
306 313 303 300 261 244 242 243 227 212 203 182 190 194 198 213 227 210 209 224 239 221 212 203 173 200 214 200 187 184 186 196 190 191 198 193 193 194 193 191 191 192 209
296 309 328 332 250 241 243 233 213 194 200 197 196 203 192 206 201 222 220 204 206 226 221 202 200 193 173 186 190 189 185 184 184 185 184 182 181 182 180 191 199 201 202
310 333 317 253 250 245 234 221 205 193 194 194 203 191 191 205 198 205 210 212 208 197 204 210 207 210 207 202 202 200 199 199 191 185 186 188 196 195 196 211 216 214 205
262 252 251 246 240 235 219 206 200 199 194 190 204 193 194 200 198 198 209 207 210 212 195 191 193 200 206 197 186 191 190 191 179 193 194 215 211 199 191 191 192 191 196
220 239 236 232 224 212 192 198 186 183 190 198 200 195 165 175 199 189 196 207 204 205 210 210 212 203 196 191 194 195 192 191 191 193 193 187 184 199 206 203 187 192 191
225 216 224 224 212 201 197 201 201 201 192 194 192 196 191 199 204 190 195 210 191 199 196 202 206 204 196 209 203 213 209 210 203 202 203 196 183 179 187 203 207 206 205
209 213 208 208 211 213 209 203 201 197 191 197 199 203 204 194 183 185 185 199 191 193 200 206 204 198 205 205 198 184 189 189 186 183 183 192 194 194 193 214 208 210 206
206 204 191 217 204 208 215 195 185 202 184 189 192 203 189 200 182 207 193 197 204 201 193 190 193 200 199 199 184 191 189 192 195 204 202 209 205 196 210 206 205 222 219
226 223 214 210 209 196 181 213 221 202 193 193 209 216 220 197 195 196 193 204 209 198 204 198 205 195 197 204 202 194 198 209 191 193 198 196 197 210 208 206 227 202 226
227 233 223 222 214 206 196 214 213 204 211 208 204 203 196 205 202 206 206 193 176 214 204 202 202 202 203 201 197 195 199 203 205 202 195 204 215 223 214 228 213 226 202
200 204 209 206 205 194 203 208 212 195 199 194 199 199 204 205 197 202 200 205 203 194 198 211 200 205 216 210 207 200 208 212 200 205 239 230 219 230 219 226 220 229 234
200 201 214 224 217 218 219 202 205 211 214 212 204 204 201 201 201 204 186 201 203 203 201 203 211 210 211 204 212 211 202 199 228 241 235 218 224 225 237 238 238 238 252
212 219 224 209 220 221 206 220 201 209 216 212 212 211 205 206 190 201 210 212 206 207 208 211 211 210 216 178 212 235 222 217 242 227 240 230 240 236 228 229 252 247 254
230 211 209 214 210 211 224 216 230 226 213 217 209 217 225 220 216 216 219 210 213 216 222 214 227 229 226 222 234 220 233 226 228 243 242 235 245 258 252 247 276 293 281
216 211 216 213 219 217 219 217 218 228 211 221 214 211 211 227 234 242 239 230 227 227 225 239 238 235 249 227 229 229 243 244 239 254 243 260 253 285 324 304 277 302 304
228 225 219 233 227 218 207 232 227 222 223 219 218 217 224 246 237 237 221 222 237 227 226 241 236 243 227 227 242 231 248 261 264 258 269 270 294 279 268 299 295 307 307
234 234 233 222 238 228 226 219 225 227 230 225 239 247 223 223 225 227 237 235 243 236 229 228 234 239 244 240 241 268 272 278 307 302 290 269 264 300 302 306 314 302 293
239 236 225 236 244 234 232 232 222 227 249 226 233 233 233 235 237 240 236 225 228 240 224 233 233 245 246 261 263 298 299 281 270 264 290 304 304 314 308 300 295 277 272
247 251 237 247 247 249 238 246 240 230 235 240 239 235 229 230 237 233 239 248 238 249 260 271 241 258 296 294 281 278 280 272 291 310 305 318 312 296 287 272 279 333 332
261 252 251 245 238 232 232 236 235 235 235 236 236 238 242 242 248 241 240 260 269 277 292 294 294 281 275 281 279 281 319 312 315 318 303 294 287 257 295 318 306 293 286
258 241 243 252 251 246 245 245 230 236 236 244 250 277 283 280 279 288 293 300 292 287 282 272 261 258 281 286 321 318 320 308 282 280 307 305 333 320 303 293 283 280 275

GFSGL_2pvu_pres_114.txt.gz
Presure
200 236 223 219 217 219 224 227 250 238 236 232 229 218 216 218 208 214 235 222 242 315 297 211 209 201 187 200 190 186 186 181 178 170 184 182 179 183 182 175 178 179 176
122 210 223 223 224 224 239 240 238 207 211 246 224 233 211 214 202 214 227 213 239 291 305 212 223 201 203 185 195 193 191 182 190 181 177 190 188 174 169 186 178 171 189
216 219 223 226 216 226 230 232 239 209 242 243 222 213 207 207 202 210 203 218 237 276 303 217 215 217 197 194 190 187 192 190 192 184 186 174 172 173 188 183 177 193 176
163 223 225 162 197 226 231 226 248 236 227 211 213 222 210 205 202 209 201 225 228 262 284 219 212 217 210 203 195 190 187 182 189 188 182 180 184 195 194 188 193 182 192
223 210 235 239 224 226 214 240 232 235 253 247 220 221 211 202 203 206 202 202 215 237 285 255 214 213 197 204 201 194 193 199 200 196 202 194 190 192 183 197 194 187 174
228 244 221 262 241 247 233 247 258 250 261 249 205 222 214 200 214 200 203 219 205 207 244 279 229 208 213 193 205 202 199 194 199 185 191 159 161 191 196 210 198 192 193
247 246 245 244 249 258 274 282 195 239 246 233 241 215 210 201 196 198 196 195 225 213 209 233 245 223 211 214 215 168 180 203 204 199 189 195 199 193 196 194 191 181 179
232 231 238 273 283 267 273 311 251 206 245 244 235 212 207 193 183 201 206 196 202 221 213 201 205 232 216 214 211 202 194 198 199 181 171 174 190 186 185 191 194 192 181
245 287 282 356 308 302 298 278 260 243 244 242 222 209 191 197 195 199 202 206 218 203 215 215 208 197 204 208 203 203 202 199 200 198 201 207 205 183 188 183 185 191 198
253 266 275 321 324 324 285 258 249 239 224 232 209 204 193 199 187 189 187 224 190 194 197 198 208 211 209 207 193 191 206 195 196 195 197 200 198 199 200 205 207 191 193
251 251 249 250 238 243 241 239 239 234 230 211 200 203 199 192 193 185 207 187 177 197 189 186 191 210 199 206 204 204 205 206 201 199 199 197 197 199 202 206 208 202 187
246 241 241 228 239 237 235 236 227 221 215 198 184 190 185 194 197 197 197 191 192 192 192 188 195 201 206 195 196 203 204 208 211 208 207 203 201 197 189 184 183 191 193
246 236 228 224 226 231 228 216 223 214 212 196 200 204 199 200 194 193 188 200 202 203 202 197 193 195 207 209 213 213 212 198 193 195 203 195 193 193 196 196 193 197 203
227 202 214 195 225 212 197 199 211 213 212 190 193 193 188 177 200 194 192 206 184 194 194 192 200 209 201 199 202 211 192 210 199 221 196 188 207 211 204 200 199 196 205
207 200 211 209 212 210 210 219 213 204 218 213 204 188 188 199 197 195 188 192 193 199 214 208 212 194 198 199 199 205 211 201 204 204 204 204 201 204 200 201 200 197 213
215 219 220 200 207 198 189 195 202 205 207 203 203 214 215 203 202 195 187 198 202 209 209 202 199 215 206 209 170 203 200 195 208 201 195 196 203 205 196 213 217 218 209
227 198 209 198 200 215 215 195 202 208 215 207 210 207 174 223 217 207 213 200 209 205 200 203 200 202 198 199 202 204 199 205 198 207 208 208 215 216 214 213 231 245 228
224 203 208 192 218 203 210 223 213 209 208 212 197 204 202 200 204 203 204 211 202 205 205 197 211 209 211 209 204 206 208 210 200 212 211 204 220 219 229 245 245 233 234
210 206 199 210 228 207 185 215 224 207 214 215 204 206 210 204 205 201 198 204 210 214 215 212 208 210 217 217 215 210 218 209 214 233 229 217 243 240 237 232 222 266 265
223 216 211 222 209 209 203 200 213 209 201 208 204 224 208 210 216 222 213 220 222 215 212 215 225 220 206 214 220 216 230 239 217 205 233 237 232 245 233 254 242 253 266
213 210 210 214 213 221 216 224 219 217 211 210 210 213 221 228 228 219 223 214 218 224 223 228 229 235 214 226 234 224 232 248 242 246 238 235 241 228 254 281 289 295 288
214 219 220 226 218 217 206 212 218 214 212 218 219 214 208 230 220 228 211 217 227 222 241 220 227 234 234 240 222 230 230 231 240 224 229 244 243 248 297 289 281 273 278
222 226 221 216 227 227 226 226 223 226 226 225 224 235 226 219 219 227 239 242 230 233 231 234 237 233 237 239 245 251 241 228 237 249 242 275 293 288 287 271 275 295 321
242 235 239 235 227 228 229 233 220 218 219 225 222 222 226 234 229 219 222 227 238 229 243 242 233 237 225 220 228 247 248 245 245 304 299 289 284 281 284 300 309 327 306
250 259 245 245 234 252 244 251 242 249 238 243 244 239 230 231 226 227 211 241 250 220 239 230 249 232 232 241 254 238 229 240 303 287 291 282 284 336 323 308 313 286 313
264 268 256 252 236 234 233 243 234 236 238 245 242 243 240 231 249 228 229 238 231 231 253 243 241 248 257 260 302 308 292 296 294 291 297 332 321 308 291 278 308 294 291

GFSGL_2pvu_pres_117.txt.gz
Presure
203 203 189 199 224 210 209 210 221 218 217 205 227 236 253 235 233 207 220 212 208 209 206 216 224 205 205 212 196 199 189 201 195 191 183 190 190 181 188 180 175 179 176
218 206 212 215 211 214 203 215 210 210 225 229 217 240 249 231 233 205 208 210 208 206 203 218 238 243 198 216 208 196 194 187 203 202 187 188 182 184 177 179 180 181 182
208 214 160 212 228 224 208 215 208 207 221 224 215 229 250 233 233 207 206 209 204 207 202 219 272 280 270 211 206 207 202 201 182 193 190 185 181 181 178 175 195 187 174
212 215 211 151 109 218 217 205 214 209 221 231 224 230 241 249 233 219 206 209 207 209 194 214 255 304 257 229 213 207 211 191 191 184 182 182 182 181 184 192 192 190 178
219 220 216 216 220 214 196 212 212 196 233 219 229 227 244 249 241 193 206 211 203 211 192 215 238 282 244 236 206 206 212 210 207 159 194 188 184 183 187 179 176 178 182
213 210 220 217 215 216 222 137 152 197 237 231 231 224 247 241 244 208 208 211 194 203 213 193 213 267 264 234 207 202 198 202 208 192 199 192 188 186 189 191 191 204 195
236 234 235 236 230 223 219 226 227 241 250 258 204 234 252 247 245 213 214 210 210 193 194 220 216 230 264 234 199 209 209 201 213 215 192 193 202 203 206 204 197 187 190
222 224 225 225 226 230 234 240 258 259 253 250 247 244 256 251 240 223 211 203 190 190 198 204 225 207 227 256 211 201 201 201 202 203 204 204 201 202 181 207 210 195 187
235 239 245 242 251 254 251 251 252 239 239 272 250 253 201 250 225 235 212 196 197 201 202 194 204 220 211 213 245 224 198 199 204 192 199 201 201 206 201 195 195 197 192
259 224 221 233 230 240 244 247 258 271 266 262 246 230 248 247 223 232 213 200 192 200 211 210 215 193 206 211 206 199 212 224 216 217 204 201 201 199 187 191 191 190 190
215 216 223 278 234 253 330 340 323 295 278 261 256 245 249 239 239 205 192 202 202 213 197 223 193 191 192 196 198 203 208 206 198 194 192 192 190 189 189 191 195 196 195
265 369 281 227 264 266 287 328 299 292 271 259 254 241 248 235 208 206 196 198 206 213 190 203 198 159 179 197 199 191 196 198 204 209 206 205 201 199 204 206 208 209 206
359 266 266 248 259 251 244 249 246 240 238 245 228 230 203 223 202 203 202 184 191 203 203 213 192 187 188 200 200 197 196 197 192 188 210 206 207 211 215 204 184 192 192
250 233 242 248 241 230 234 235 232 215 229 231 228 223 219 205 208 186 204 202 212 205 196 189 192 193 205 202 204 199 198 186 208 203 215 210 203 205 210 187 217 206 216
230 256 213 228 212 214 220 217 223 214 227 229 220 212 219 218 214 202 174 199 184 198 200 210 205 189 191 191 197 196 195 200 199 197 198 216 218 203 213 219 209 211 209
229 214 228 221 212 215 210 211 215 226 224 216 201 218 213 188 217 188 192 188 186 194 198 195 204 197 183 193 201 206 205 214 210 200 205 214 232 218 203 208 206 202 196
232 219 218 216 217 210 205 221 212 217 215 208 208 225 205 209 201 208 213 211 208 210 210 204 207 214 212 213 204 199 214 206 210 202 200 212 201 196 196 203 209 207 203
215 248 225 209 229 224 213 205 212 222 199 209 207 222 211 222 198 202 215 215 211 209 208 212 209 210 211 216 217 210 199 196 206 207 203 210 208 202 210 215 206 211 197
222 218 223 213 220 210 215 199 211 201 223 198 210 212 211 201 210 207 205 206 204 209 211 209 209 204 212 205 214 212 206 201 205 211 207 207 206 216 224 219 208 215 215
219 229 218 208 225 219 209 215 212 200 200 203 207 205 210 213 212 212 214 217 216 209 213 210 203 202 204 204 212 210 214 223 223 229 223 224 214 223 205 240 227 219 232
228 234 227 229 212 215 217 209 226 217 220 198 212 214 202 201 199 210 212 221 212 202 201 216 220 221 216 206 222 230 209 228 226 225 231 222 227 234 237 217 231 232 239
224 223 235 231 223 216 216 229 233 224 215 211 214 208 215 208 216 216 213 221 222 214 203 207 210 213 222 214 213 207 226 220 217 211 205 226 233 235 217 243 251 249 250
232 231 224 228 221 233 227 215 211 214 219 219 212 217 219 229 232 215 228 199 215 217 223 218 227 227 224 230 231 210 230 233 224 229 217 241 240 225 244 237 240 243 260
241 237 222 229 224 224 226 221 227 230 220 228 226 210 222 227 233 230 229 228 216 233 227 219 214 216 224 225 230 230 228 237 225 235 225 240 240 257 252 257 252 272 255
233 236 249 238 240 217 212 227 227 232 222 227 232 222 234 214 221 225 225 224 225 228 224 226 223 210 231 230 223 219 240 231 232 228 247 218 254 237 244 249 243 288 334
271 248 241 245 234 233 237 240 233 241 244 231 226 226 227 227 231 237 233 228 233 234 239 237 240 241 249 247 252 254 249 232 228 253 245 246 261 279 340 303 313 314 313

GFSGL_2pvu_pres_120.txt.gz
Presure
215 214 210 207 206 204 198 204 205 197 172 219 209 206 213 215 216 232 231 251 232 221 220 218 217 197 208 210 217 208 213 197 190 207 201 196 198 193 183 189 183 184 185
223 223 219 200 212 204 203 199 204 201 209 204 213 219 216 218 224 227 221 241 235 223 217 220 210 213 198 208 224 215 203 207 211 182 187 190 203 194 187 191 187 178 195
231 227 227 225 187 103 208 206 208 208 206 214 211 214 208 210 215 202 229 239 240 216 212 216 207 210 195 222 206 217 207 205 209 208 195 201 188 189 197 195 196 180 196
224 236 229 221 212 196 156 207 200 221 215 208 211 219 207 198 222 207 239 238 245 216 208 215 201 207 190 215 277 293 221 208 202 202 208 199 193 192 181 187 191 193 186
225 222 226 230 220 207 210 192 212 210 208 208 204 221 212 193 201 211 230 239 247 220 205 207 206 211 191 214 305 276 256 237 200 214 196 193 183 186 180 182 183 178 176
231 224 222 233 210 219 211 212 211 217 210 213 213 214 212 213 214 232 227 239 250 225 194 211 194 206 216 202 285 253 255 242 220 205 207 206 191 191 191 190 192 190 186
238 235 227 230 229 226 209 208 216 214 211 214 206 176 227 164 219 225 235 233 255 226 199 208 195 198 198 232 213 244 240 232 225 216 203 202 199 188 194 203 200 197 196
226 226 228 226 222 214 214 216 216 219 224 233 233 227 219 226 227 237 261 232 263 230 207 214 196 203 192 205 213 265 232 231 232 224 202 196 194 193 193 197 205 205 198
226 228 228 219 217 225 238 238 235 229 226 218 230 228 233 242 253 247 215 239 264 230 212 205 193 197 199 197 220 211 253 228 225 226 224 202 194 196 198 194 186 184 200
254 240 239 238 240 238 230 217 226 236 230 240 257 265 247 249 227 236 241 239 265 232 211 208 196 202 198 201 201 211 204 195 226 226 221 220 205 199 192 192 193 188 188
247 235 238 235 228 225 227 233 240 252 252 259 246 226 245 238 238 242 257 177 261 219 214 203 198 187 192 207 192 196 193 206 203 193 201 210 206 199 200 206 205 205 203
230 233 236 241 251 253 250 250 229 234 236 237 288 254 244 283 259 261 248 252 258 229 199 197 200 211 215 192 215 198 195 190 197 182 195 200 200 197 199 197 198 200 203
216 225 230 229 218 227 217 221 222 286 338 307 230 276 275 258 254 242 240 250 245 216 201 204 214 181 181 187 193 191 186 188 189 190 191 194 201 194 195 195 188 217 203
222 222 225 223 228 242 271 267 273 291 287 275 274 265 260 249 244 246 246 246 212 204 203 201 206 188 199 200 206 207 182 194 179 189 193 194 197 201 197 201 197 206 201
284 296 270 278 273 262 261 247 249 249 246 245 237 235 244 236 232 231 237 194 211 203 181 181 178 213 219 212 204 207 184 179 203 204 191 190 192 190 196 202 199 217 212
300 311 298 270 254 254 248 238 223 228 230 226 227 216 223 226 217 229 224 222 203 211 200 197 195 200 206 184 190 188 184 214 198 193 194 196 210 207 215 212 205 214 208
316 287 254 237 234 240 237 220 227 223 212 217 225 215 221 221 218 221 221 225 211 204 212 186 182 212 192 189 200 200 202 202 214 212 209 205 213 212 212 219 214 202 205
288 261 248 238 227 228 227 226 224 215 219 224 221 214 192 224 227 225 218 212 229 210 190 228 202 202 204 211 216 215 207 211 215 214 206 214 215 204 204 211 205 210 212
281 251 244 226 238 220 212 223 214 221 210 213 223 216 226 225 223 215 218 217 219 223 209 212 210 225 205 206 216 188 212 214 218 218 196 219 209 215 216 206 211 209 207
282 249 238 224 240 222 215 227 207 217 221 208 208 215 226 225 227 211 221 213 203 227 240 219 203 218 227 213 216 209 213 226 209 222 216 204 214 223 202 209 218 215 212
279 239 242 234 231 222 227 214 231 211 224 215 215 213 201 224 210 233 215 223 208 232 223 214 215 202 203 215 202 216 219 226 200 203 220 218 209 211 225 212 208 224 208
280 257 246 238 224 235 232 214 227 224 227 214 224 218 215 217 217 216 206 221 224 204 204 202 205 211 211 217 218 215 200 200 213 206 210 210 218 211 225 210 208 222 230
291 277 244 241 244 228 233 231 212 232 232 204 226 225 214 219 220 220 217 219 221 225 217 221 210 206 210 224 211 216 219 217 224 217 216 223 220 224 230 224 221 226 236
274 240 267 252 244 240 221 234 249 238 225 236 226 223 217 212 218 205 207 221 213 208 213 215 215 212 216 209 211 211 221 226 220 232 206 216 219 229 232 216 223 228 220
283 249 307 265 252 242 245 239 224 226 231 227 237 226 233 226 228 226 231 226 228 226 228 223 216 222 218 224 217 222 226 223 220 225 225 239 228 226 223 232 237 250 261
261 299 251 306 264 254 248 232 243 241 243 230 237 227 223 236 227 221 222 227 230 221 241 229 226 229 238 238 230 229 232 244 235 229 224 241 244 228 226 246 242 234 284

GFSGL_2pvu_pres_123.txt.gz
Presure
217 217 215 216 216 213 206 208 204 204 203 204 205 201 199 212 211 189 204 213 211 222 229 242 253 230 198 218 210 220 210 227 214 203 206 208 214 206 190 193 195 190 171
226 225 221 222 215 217 215 211 209 205 210 209 204 208 211 198 206 204 216 209 220 218 219 238 253 235 205 216 205 203 218 206 220 214 203 199 214 196 214 196 191 196 182
231 229 225 223 223 218 225 223 215 210 206 202 195 204 189 205 205 197 214 208 220 213 211 225 246 237 221 218 207 209 200 220 213 224 219 207 195 204 179 195 190 198 201
232 238 150 232 227 235 243 240 145 216 205 209 204 204 217 203 199 215 210 208 202 216 203 222 238 246 225 215 213 211 198 209 222 211 215 224 205 204 200 192 188 182 189
133 146 213 243 236 246 237 229 225 223 229 214 206 201 200 193 218 208 212 215 202 216 205 226 234 243 223 213 211 203 207 200 214 274 267 218 207 203 196 201 197 192 187
242 237 230 228 228 244 233 230 223 220 215 206 204 202 192 225 212 210 209 201 173 179 217 222 232 242 224 218 215 202 216 210 213 276 255 238 208 195 192 194 201 202 199
254 272 269 253 260 235 231 225 219 225 224 215 209 213 219 212 215 204 205 215 199 220 220 226 235 241 226 217 212 203 210 219 221 251 249 240 226 202 197 195 201 193 192
248 250 256 250 251 249 241 228 219 216 214 224 212 209 203 208 206 195 219 204 177 214 220 229 233 249 225 216 210 205 204 199 225 228 249 235 228 230 212 207 198 205 188
239 240 248 251 254 241 244 224 219 220 224 230 221 216 214 211 212 222 225 227 190 226 230 236 267 238 226 219 209 203 211 197 198 247 239 240 239 229 221 213 206 197 196
239 245 240 241 237 234 240 230 225 225 221 214 218 214 218 221 235 227 218 226 225 184 258 252 242 243 228 216 210 203 192 189 194 217 243 227 225 228 218 226 219 209 190
245 238 240 235 235 240 243 236 227 229 231 227 223 231 236 238 222 228 236 260 230 233 239 234 227 206 192 215 208 205 203 192 205 206 190 217 227 220 218 217 213 211 214
243 238 238 238 242 250 243 247 242 235 235 234 234 224 232 239 240 266 218 215 216 246 224 227 228 236 250 217 212 199 194 204 206 204 194 196 193 200 200 200 193 193 189
226 234 237 246 243 234 249 236 229 231 227 221 226 237 202 227 282 212 235 265 245 250 244 244 261 242 247 214 208 196 200 187 183 211 200 193 192 191 185 185 187 183 193
238 236 232 228 230 236 238 233 235 237 240 239 199 219 256 225 230 220 234 235 236 259 250 248 241 243 228 213 184 187 165 200 192 183 206 180 188 187 174 187 185 177 186
267 267 239 240 229 226 233 223 234 231 214 232 248 216 267 252 247 239 233 257 250 247 233 236 235 241 217 214 200 209 203 197 202 184 184 194 202 195 190 196 182 204 181
302 306 308 263 315 284 249 233 242 220 252 221 264 257 282 266 239 238 242 244 242 245 237 224 228 237 227 209 200 207 209 205 214 213 209 204 202 201 192 177 198 199 204
287 282 299 304 310 325 306 234 228 258 257 250 251 253 250 248 242 245 240 231 240 234 232 230 234 238 226 222 206 211 185 201 192 198 194 185 179 197 193 199 218 206 210
277 281 293 278 298 288 280 252 258 249 239 249 233 241 241 240 236 229 224 231 232 227 228 227 234 237 233 205 215 213 199 201 185 198 209 208 201 203 217 209 200 210 217
339 337 268 312 280 276 251 253 249 243 243 235 225 229 226 237 219 228 226 209 225 224 226 224 226 224 226 200 199 209 204 203 213 205 218 213 219 215 187 207 207 209 221
306 329 259 306 276 256 248 247 255 245 231 236 227 215 221 222 210 220 228 218 222 216 221 227 218 221 229 233 223 212 211 218 216 214 202 224 211 205 231 201 213 221 194
309 317 296 301 278 254 252 241 246 248 235 235 224 223 232 229 213 200 225 223 217 220 205 220 223 218 217 226 217 212 208 227 213 223 211 212 202 213 215 212 198 222 219
294 304 315 274 280 250 253 237 239 246 236 242 233 222 235 220 224 222 214 222 228 219 218 218 217 223 219 211 217 228 217 216 200 218 232 223 220 222 208 211 209 227 216
289 300 298 318 289 271 244 252 237 239 244 232 226 228 224 226 221 218 235 223 227 219 215 220 234 234 229 226 224 216 219 217 217 226 224 220 211 227 220 223 225 227 234
273 315 309 310 284 254 262 242 253 236 241 225 238 227 226 231 234 225 227 213 227 229 204 227 227 221 226 230 230 222 227 223 229 230 230 215 218 213 220 219 214 215 221
303 293 277 295 309 310 284 264 247 252 242 235 246 225 238 239 224 228 238 228 231 239 226 227 235 231 231 230 230 224 213 210 229 230 218 221 227 225 222 235 228 232 217
320 329 313 276 298 297 284 306 263 260 239 253 234 242 244 239 235 238 238 229 233 222 227 236 220 219 219 230 226 226 230 225 226 218 219 231 233 228 222 234 241 229 232